NDF57EL EDDF-VHHH

Flight info

Callsign NDF57EL
Flight time 11h 4m
Altitude 31000
Route SULUS4D SULUS Z650 VEMUT/N0484F370 DCT DITIS DCT ALAMU DCT BUDOP DCT LUGEB DCT UDROS UM859 RERVA/N0478F390 UM859 KARDE UL851 TBN UM11 REBLO P130 MAMED B449 RANAH L750 UPVAL/N0480F410 L750 MERUN G452 LKN A201 LSO A599 LINSO/K0902S1250 A599 POU R473 SIERA SIERA2G
Aircraft A359/H-SDE2E3GHIJ3J4J5LM1ORWXY/LB1D1

Departure

Time 2026-04-17 00:20
Airport Frankfurt Main Airport (EDDF)

Arrival

Time 2026-04-17 11:24
Airport Hong Kong International Airport (VHHH)
Time Latitude Longitude Altitude Speed Heading
2026-04-16 23:06 50.04643 8.55944 362 ft 0 kts 340°
2026-04-16 23:58 50.04621 8.55957 366 ft 4 kts 339°
2026-04-16 23:59 50.04597 8.55970 367 ft 4 kts 335°
2026-04-16 23:59 50.04576 8.55993 364 ft 3 kts 298°
2026-04-16 23:59 50.04571 8.56031 368 ft 3 kts 260°
2026-04-16 23:59 50.04579 8.56071 366 ft 3 kts 248°
2026-04-17 00:00 50.04582 8.56085 362 ft 0 kts 250°
2026-04-17 00:03 50.04580 8.56077 362 ft 6 kts 250°
2026-04-17 00:04 50.04527 8.55967 369 ft 15 kts 211°
2026-04-17 00:04 50.04430 8.55918 370 ft 15 kts 186°
2026-04-17 00:04 50.04332 8.55942 364 ft 6 kts 160°
2026-04-17 00:04 50.04331 8.55942 363 ft 0 kts 160°
2026-04-17 00:05 50.04325 8.55945 368 ft 3 kts 162°
2026-04-17 00:05 50.04285 8.55955 362 ft 11 kts 180°
2026-04-17 00:05 50.04208 8.55840 365 ft 20 kts 250°
2026-04-17 00:05 50.04158 8.55605 366 ft 25 kts 250°
2026-04-17 00:06 50.04110 8.55392 364 ft 16 kts 249°
2026-04-17 00:06 50.04071 8.55235 367 ft 13 kts 249°
2026-04-17 00:06 50.04038 8.55097 365 ft 14 kts 249°
2026-04-17 00:06 50.04017 8.55011 368 ft 0 kts 249°
2026-04-17 00:07 50.04011 8.54986 366 ft 9 kts 249°
2026-04-17 00:07 50.03986 8.54884 362 ft 11 kts 249°
2026-04-17 00:07 50.03961 8.54781 366 ft 7 kts 250°
2026-04-17 00:08 50.03942 8.54701 360 ft 8 kts 249°
2026-04-17 00:08 50.03921 8.54616 362 ft 8 kts 249°
2026-04-17 00:08 50.03896 8.54514 362 ft 15 kts 250°
2026-04-17 00:08 50.03842 8.54338 356 ft 19 kts 235°
2026-04-17 00:09 50.03783 8.54165 358 ft 18 kts 246°
2026-04-17 00:09 50.03739 8.53984 357 ft 18 kts 251°
2026-04-17 00:09 50.03726 8.53922 354 ft 0 kts 252°
2026-04-17 00:14 50.03716 8.53873 357 ft 12 kts 252°
2026-04-17 00:14 50.03711 8.53848 356 ft 0 kts 253°
2026-04-17 00:15 50.03705 8.53817 353 ft 13 kts 252°
2026-04-17 00:15 50.03657 8.53639 358 ft 19 kts 239°
2026-04-17 00:16 50.03607 8.53551 354 ft 4 kts 207°
2026-04-17 00:16 50.03582 8.53531 357 ft 9 kts 207°
2026-04-17 00:16 50.03484 8.53460 354 ft 13 kts 202°
2026-04-17 00:16 50.03401 8.53461 355 ft 12 kts 152°
2026-04-17 00:17 50.03343 8.53555 353 ft 12 kts 128°
2026-04-17 00:17 50.03319 8.53664 354 ft 11 kts 85°
2026-04-17 00:17 50.03327 8.53710 356 ft 0 kts 72°
2026-04-17 00:19 50.03365 8.53881 355 ft 47 kts 70°
2026-04-17 00:19 50.03551 8.54650 358 ft 104 kts 69°
2026-04-17 00:19 50.03858 8.55950 366 ft 152 kts 69°
2026-04-17 00:20 50.04281 8.57626 692 ft 163 kts 68°
2026-04-17 00:20 50.04684 8.59197 1426 ft 155 kts 68°
2026-04-17 00:20 50.05090 8.60772 1858 ft 156 kts 69°
2026-04-17 00:20 50.05484 8.62310 2249 ft 153 kts 69°
2026-04-17 00:21 50.05858 8.63789 2694 ft 143 kts 69°
2026-04-17 00:21 50.06197 8.65163 3067 ft 133 kts 69°
2026-04-17 00:21 50.06535 8.66583 3126 ft 146 kts 70°
2026-04-17 00:21 50.06845 8.68140 3278 ft 156 kts 75°
2026-04-17 00:22 50.07230 8.71735 3624 ft 184 kts 94°
2026-04-17 00:22 50.07040 8.73777 3843 ft 198 kts 101°
2026-04-17 00:22 50.06766 8.75971 4060 ft 214 kts 101°
2026-04-17 00:23 50.06479 8.78306 4274 ft 232 kts 101°
2026-04-17 00:23 50.06173 8.80873 4487 ft 250 kts 101°
2026-04-17 00:23 50.05867 8.83616 4832 ft 263 kts 98°
2026-04-17 00:23 50.05785 8.86487 5329 ft 269 kts 89°
2026-04-17 00:24 50.05829 8.89416 5889 ft 273 kts 89°
2026-04-17 00:24 50.05888 8.92385 6442 ft 276 kts 89°
2026-04-17 00:24 50.05945 8.95395 7014 ft 279 kts 89°
2026-04-17 00:24 50.05998 8.98424 7574 ft 282 kts 89°
2026-04-17 00:25 50.06050 9.01486 8163 ft 284 kts 89°
2026-04-17 00:25 50.06100 9.04526 8743 ft 286 kts 89°
2026-04-17 00:25 50.06150 9.07635 9337 ft 289 kts 89°
2026-04-17 00:25 50.06199 9.10774 9953 ft 291 kts 89°
2026-04-17 00:26 50.06247 9.13947 10444 ft 297 kts 89°
2026-04-17 00:26 50.06296 9.17239 10694 ft 311 kts 89°
2026-04-17 00:26 50.06352 9.20679 10931 ft 325 kts 89°
2026-04-17 00:26 50.06403 9.24271 11165 ft 339 kts 89°
2026-04-17 00:27 50.06452 9.28002 11395 ft 352 kts 89°
2026-04-17 00:27 50.06502 9.31873 11624 ft 364 kts 88°
2026-04-17 00:27 50.06553 9.35816 11835 ft 375 kts 88°
2026-04-17 00:27 50.06604 9.39923 12090 ft 384 kts 88°
2026-04-17 00:28 50.06655 9.44106 12476 ft 389 kts 88°
2026-04-17 00:28 50.06705 9.48330 12881 ft 393 kts 88°
2026-04-17 00:28 50.06754 9.52597 13294 ft 396 kts 88°
2026-04-17 00:28 50.06802 9.56908 13718 ft 400 kts 88°
2026-04-17 00:29 50.06849 9.61249 14111 ft 403 kts 88°
2026-04-17 00:29 50.06894 9.65621 14485 ft 405 kts 88°
2026-04-17 00:29 50.06938 9.69959 14862 ft 408 kts 88°
2026-04-17 00:29 50.06984 9.74386 15247 ft 410 kts 88°
2026-04-17 00:30 50.07025 9.78834 15626 ft 413 kts 88°
2026-04-17 00:30 50.07063 9.83318 16004 ft 416 kts 88°
2026-04-17 00:30 50.07101 9.87819 16374 ft 418 kts 88°
2026-04-17 00:30 50.07137 9.92360 16751 ft 421 kts 88°
2026-04-17 00:31 50.07171 9.96927 17121 ft 423 kts 88°
2026-04-17 00:31 50.07204 10.01517 17499 ft 426 kts 88°
2026-04-17 00:31 50.07236 10.06148 17849 ft 428 kts 88°
2026-04-17 00:31 50.07266 10.10731 18207 ft 431 kts 88°
2026-04-17 00:32 50.07294 10.15418 18506 ft 435 kts 88°
2026-04-17 00:32 50.07321 10.20143 18819 ft 437 kts 88°
2026-04-17 00:32 50.07346 10.24890 19130 ft 439 kts 88°
2026-04-17 00:32 50.07375 10.29653 19435 ft 441 kts 88°
2026-04-17 00:33 50.07400 10.34452 19747 ft 444 kts 88°
2026-04-17 00:33 50.07422 10.39258 20045 ft 446 kts 88°
2026-04-17 00:33 50.07443 10.44095 20355 ft 448 kts 87°
2026-04-17 00:33 50.07463 10.48945 20655 ft 450 kts 88°
2026-04-17 00:34 50.07480 10.53828 20949 ft 452 kts 88°
2026-04-17 00:34 50.07494 10.58658 21260 ft 453 kts 87°
2026-04-17 00:34 50.07507 10.63561 21575 ft 455 kts 87°
2026-04-17 00:34 50.07514 10.68504 21863 ft 457 kts 88°
2026-04-17 00:35 50.07249 10.73450 22140 ft 462 kts 99°
2026-04-17 00:35 50.06500 10.78331 22430 ft 465 kts 104°
2026-04-17 00:35 50.05560 10.83146 22714 ft 467 kts 107°
2026-04-17 00:35 50.04522 10.87955 23007 ft 469 kts 108°
2026-04-17 00:36 50.03451 10.92763 23291 ft 472 kts 108°
2026-04-17 00:36 50.02376 10.97591 23570 ft 474 kts 108°
2026-04-17 00:36 50.01307 11.02451 23850 ft 476 kts 107°
2026-04-17 00:36 50.00260 11.07272 24069 ft 479 kts 107°
2026-04-17 00:37 49.99202 11.12190 24297 ft 481 kts 107°
2026-04-17 00:37 49.98145 11.17120 24525 ft 483 kts 107°
2026-04-17 00:37 49.97083 11.22083 24761 ft 485 kts 107°
2026-04-17 00:37 49.96021 11.27061 24988 ft 487 kts 106°
2026-04-17 00:38 49.94964 11.32053 25221 ft 489 kts 106°
2026-04-17 00:38 49.93896 11.37090 25445 ft 491 kts 106°
2026-04-17 00:38 49.92841 11.42062 25676 ft 493 kts 106°
2026-04-17 00:38 49.91816 11.47212 25915 ft 495 kts 104°
2026-04-17 00:39 49.90886 11.52290 26149 ft 496 kts 103°
2026-04-17 00:39 49.89969 11.57459 26400 ft 498 kts 103°
2026-04-17 00:39 49.89050 11.62645 26639 ft 500 kts 103°
2026-04-17 00:39 49.88252 11.67901 26883 ft 500 kts 97°
2026-04-17 00:40 49.87692 11.73235 27121 ft 502 kts 96°
2026-04-17 00:40 49.87184 11.78589 27361 ft 503 kts 95°
2026-04-17 00:40 49.86704 11.83962 27611 ft 505 kts 95°
2026-04-17 00:40 49.86231 11.89361 27877 ft 507 kts 94°
2026-04-17 00:41 49.85763 11.94722 28143 ft 509 kts 94°
2026-04-17 00:41 49.85284 12.00159 28389 ft 511 kts 94°
2026-04-17 00:41 49.84802 12.05620 28632 ft 513 kts 94°
2026-04-17 00:41 49.84310 12.11104 28872 ft 515 kts 94°
2026-04-17 00:42 49.83811 12.16598 29135 ft 517 kts 95°
2026-04-17 00:42 49.83306 12.22117 29370 ft 519 kts 95°
2026-04-17 00:42 49.82796 12.27653 29610 ft 521 kts 95°
2026-04-17 00:42 49.82282 12.33226 29900 ft 522 kts 94°
2026-04-17 00:43 49.81767 12.38796 30201 ft 523 kts 94°
2026-04-17 00:43 49.81064 12.44273 30405 ft 529 kts 102°
2026-04-17 00:43 49.79827 12.49666 30587 ft 535 kts 111°
2026-04-17 00:43 49.78268 12.54905 30818 ft 537 kts 113°
2026-04-17 00:44 49.76615 12.60087 31088 ft 537 kts 114°
2026-04-17 00:44 49.74914 12.65241 31247 ft 540 kts 115°
2026-04-17 00:44 49.71450 12.75597 31245 ft 543 kts 115°
2026-04-17 00:45 49.68011 12.85898 31259 ft 543 kts 115°
2026-04-17 00:45 49.64565 12.96257 31265 ft 543 kts 115°
2026-04-17 00:46 49.61113 13.06618 31263 ft 543 kts 115°
2026-04-17 00:46 49.57651 13.16965 31261 ft 543 kts 115°
2026-04-17 00:47 49.54183 13.27287 31265 ft 543 kts 115°
2026-04-17 00:47 49.50703 13.37596 31266 ft 543 kts 115°
2026-04-17 00:48 49.47235 13.47831 31262 ft 543 kts 115°
2026-04-17 00:48 49.43742 13.58101 31262 ft 542 kts 115°
2026-04-17 00:49 49.40241 13.68350 31259 ft 542 kts 115°
2026-04-17 00:49 49.36754 13.78520 31230 ft 542 kts 116°
2026-04-17 00:50 49.33242 13.88720 31257 ft 540 kts 116°
2026-04-17 00:50 49.29724 13.98896 31266 ft 540 kts 116°
2026-04-17 00:51 49.26202 14.09045 31265 ft 540 kts 116°
2026-04-17 00:51 49.22691 14.19120 31257 ft 540 kts 116°
2026-04-17 00:52 49.19149 14.29246 31249 ft 540 kts 116°
2026-04-17 00:52 49.15601 14.39352 31251 ft 540 kts 116°
2026-04-17 00:53 49.12043 14.49443 31249 ft 540 kts 116°
2026-04-17 00:53 49.08472 14.59534 31249 ft 540 kts 117°
2026-04-17 00:54 49.04917 14.69540 31263 ft 540 kts 117°
2026-04-17 00:54 49.01330 14.79597 31217 ft 540 kts 117°
2026-04-17 00:55 48.97745 14.89609 31246 ft 537 kts 117°
2026-04-17 00:55 48.94165 14.99571 31243 ft 537 kts 117°
2026-04-17 00:56 48.90596 15.09462 31249 ft 537 kts 117°
2026-04-17 00:56 48.87061 15.19452 31243 ft 537 kts 116°
2026-04-17 00:57 48.83661 15.29529 31241 ft 536 kts 115°
2026-04-17 00:57 48.80252 15.39607 31238 ft 536 kts 116°
2026-04-17 00:58 48.76837 15.49582 31236 ft 537 kts 116°
2026-04-17 00:58 48.73381 15.59596 31229 ft 537 kts 116°
2026-04-17 00:59 48.69911 15.69607 31224 ft 537 kts 116°
2026-04-17 00:59 48.66434 15.79597 31225 ft 537 kts 116°
2026-04-17 01:00 48.62949 15.89578 31222 ft 536 kts 117°
2026-04-17 01:00 48.59466 15.99514 31217 ft 534 kts 117°
2026-04-17 01:01 48.56000 16.09361 31217 ft 534 kts 117°
2026-04-17 01:01 48.52508 16.19248 31211 ft 534 kts 117°
2026-04-17 01:02 48.49007 16.29126 31205 ft 534 kts 117°
2026-04-17 01:02 48.45501 16.38977 31205 ft 533 kts 118°
2026-04-17 01:03 48.42010 16.48750 31207 ft 533 kts 118°
2026-04-17 01:03 48.38487 16.58574 31219 ft 533 kts 118°
2026-04-17 01:04 48.34948 16.68403 31211 ft 535 kts 118°
2026-04-17 01:04 48.31398 16.78230 31212 ft 536 kts 118°
2026-04-17 01:05 48.27835 16.88055 31213 ft 535 kts 118°
2026-04-17 01:05 48.24297 16.97775 31210 ft 533 kts 118°
2026-04-17 01:06 48.20741 17.07506 31211 ft 531 kts 118°
2026-04-17 01:06 48.17182 17.17213 31211 ft 531 kts 118°
2026-04-17 01:07 48.13617 17.26901 31184 ft 531 kts 118°
2026-04-17 01:07 48.10068 17.36506 31186 ft 530 kts 119°
2026-04-17 01:08 48.06496 17.46140 31189 ft 530 kts 119°
2026-04-17 01:08 48.02914 17.55766 31193 ft 530 kts 119°
2026-04-17 01:09 47.99328 17.65370 31196 ft 530 kts 119°
2026-04-17 01:09 47.95732 17.74965 31195 ft 529 kts 120°
2026-04-17 01:10 47.92151 17.84483 31195 ft 529 kts 120°
2026-04-17 01:10 47.88543 17.94041 31176 ft 529 kts 120°
2026-04-17 01:11 47.84932 18.03574 31201 ft 528 kts 120°
2026-04-17 01:11 47.81320 18.13074 31195 ft 527 kts 120°
2026-04-17 01:12 47.77727 18.22489 31192 ft 527 kts 120°
2026-04-17 01:12 47.74101 18.31958 31192 ft 527 kts 120°
2026-04-17 01:13 47.70725 18.41615 31191 ft 527 kts 115°
2026-04-17 01:13 47.67750 18.51559 31187 ft 526 kts 114°
2026-04-17 01:14 47.64780 18.61407 31187 ft 526 kts 115°
2026-04-17 01:14 47.61714 18.71248 31186 ft 526 kts 115°
2026-04-17 01:15 47.58606 18.81059 31184 ft 526 kts 116°
2026-04-17 01:15 47.55482 18.90867 31183 ft 526 kts 116°
2026-04-17 01:16 47.52349 19.00674 31185 ft 526 kts 116°
2026-04-17 01:16 47.49214 19.10460 31183 ft 526 kts 116°
2026-04-17 01:17 47.46095 19.20159 31184 ft 526 kts 116°
2026-04-17 01:17 47.42942 19.29926 31179 ft 526 kts 116°
2026-04-17 01:18 47.39788 19.39657 31184 ft 525 kts 116°
2026-04-17 01:18 47.36627 19.49374 31178 ft 525 kts 116°
2026-04-17 01:19 47.33467 19.59050 31179 ft 524 kts 116°
2026-04-17 01:19 47.30319 19.68654 31172 ft 523 kts 116°
2026-04-17 01:20 47.27145 19.78304 31161 ft 523 kts 116°
2026-04-17 01:20 47.23960 19.87948 31160 ft 523 kts 117°
2026-04-17 01:21 47.20778 19.97547 31157 ft 522 kts 117°
2026-04-17 01:21 47.17608 20.07075 31157 ft 522 kts 117°
2026-04-17 01:22 47.14406 20.16663 31156 ft 522 kts 117°
2026-04-17 01:22 47.11202 20.26225 31156 ft 522 kts 117°
2026-04-17 01:23 47.07984 20.35789 31151 ft 522 kts 117°
2026-04-17 01:23 47.04763 20.45329 31148 ft 522 kts 117°
2026-04-17 01:24 47.01552 20.54804 31148 ft 522 kts 117°
2026-04-17 01:24 46.98314 20.64325 31143 ft 522 kts 117°
2026-04-17 01:25 46.95066 20.73839 31143 ft 522 kts 117°
2026-04-17 01:25 46.91813 20.83335 31143 ft 522 kts 117°
2026-04-17 01:26 46.88550 20.92826 31146 ft 522 kts 118°
2026-04-17 01:26 46.85298 21.02249 31139 ft 523 kts 118°
2026-04-17 01:27 46.82019 21.11715 31140 ft 523 kts 118°
2026-04-17 01:27 46.78731 21.21173 31138 ft 523 kts 118°
2026-04-17 01:28 46.75436 21.30622 31135 ft 523 kts 118°
2026-04-17 01:28 46.72151 21.40005 31135 ft 523 kts 118°
2026-04-17 01:29 46.67169 21.54126 31132 ft 522 kts 119°
2026-04-17 01:30 46.63707 21.63430 31132 ft 523 kts 120°
2026-04-17 01:30 46.60207 21.72701 31126 ft 523 kts 120°
2026-04-17 01:31 46.56739 21.81916 31128 ft 523 kts 120°
2026-04-17 01:31 46.53255 21.91187 31123 ft 523 kts 120°
2026-04-17 01:32 46.49766 22.00450 31126 ft 523 kts 120°
2026-04-17 01:32 46.46270 22.09701 31126 ft 522 kts 120°
2026-04-17 01:33 46.42768 22.18931 31126 ft 522 kts 120°
2026-04-17 01:33 46.39289 22.28069 31128 ft 521 kts 120°
2026-04-17 01:34 46.35787 22.37241 31132 ft 520 kts 120°
2026-04-17 01:34 46.32277 22.46401 31132 ft 520 kts 121°
2026-04-17 01:35 46.28761 22.55543 31132 ft 520 kts 121°
2026-04-17 01:35 46.25238 22.64675 31140 ft 520 kts 121°
2026-04-17 01:36 46.21736 22.73721 31140 ft 519 kts 121°
2026-04-17 01:36 46.18206 22.82810 31144 ft 519 kts 121°
2026-04-17 01:37 46.14663 22.91901 31140 ft 519 kts 121°
2026-04-17 01:37 46.11120 23.00963 31138 ft 519 kts 121°
2026-04-17 01:38 46.07589 23.09966 31138 ft 519 kts 121°
2026-04-17 01:38 46.04027 23.19017 31137 ft 519 kts 121°
2026-04-17 01:39 46.00467 23.28032 31135 ft 517 kts 121°
2026-04-17 01:39 45.96912 23.37007 31135 ft 515 kts 121°
2026-04-17 01:40 45.93388 23.45875 31135 ft 515 kts 121°
2026-04-17 01:40 45.89829 23.54799 31136 ft 515 kts 121°
2026-04-17 01:41 45.86275 23.63685 31138 ft 513 kts 121°
2026-04-17 01:41 45.82717 23.72552 31137 ft 513 kts 121°
2026-04-17 01:42 45.79176 23.81348 31133 ft 513 kts 121°
2026-04-17 01:42 45.75610 23.90177 31130 ft 513 kts 121°
2026-04-17 01:43 45.72032 23.99011 31130 ft 512 kts 121°
2026-04-17 01:43 45.68448 24.07826 31142 ft 512 kts 121°
2026-04-17 01:44 45.64858 24.16633 31145 ft 512 kts 121°
2026-04-17 01:44 45.61288 24.25360 31143 ft 512 kts 121°
2026-04-17 01:45 45.57683 24.34146 31139 ft 513 kts 121°
2026-04-17 01:45 45.54077 24.42907 31137 ft 512 kts 121°
2026-04-17 01:46 45.50470 24.51641 31144 ft 510 kts 121°
2026-04-17 01:46 45.46896 24.60272 31140 ft 509 kts 121°
2026-04-17 01:47 45.43294 24.68944 31146 ft 509 kts 122°
2026-04-17 01:47 45.39687 24.77599 31145 ft 509 kts 122°
2026-04-17 01:48 45.36073 24.86244 31145 ft 508 kts 122°
2026-04-17 01:48 45.32483 24.94805 31151 ft 508 kts 122°
2026-04-17 01:49 45.28863 25.03413 31154 ft 508 kts 122°
2026-04-17 01:49 45.25235 25.12012 31152 ft 507 kts 122°
2026-04-17 01:50 45.21607 25.20585 31155 ft 507 kts 122°
2026-04-17 01:50 45.17972 25.29151 31152 ft 507 kts 122°
2026-04-17 01:51 45.14355 25.37645 31144 ft 507 kts 122°
2026-04-17 01:51 45.10706 25.46189 31151 ft 506 kts 122°
2026-04-17 01:52 45.07061 25.54697 31146 ft 506 kts 122°
2026-04-17 01:52 45.03413 25.63188 31153 ft 504 kts 122°
2026-04-17 01:53 44.99788 25.71599 31155 ft 504 kts 122°
2026-04-17 01:53 44.96147 25.80027 31151 ft 503 kts 122°
2026-04-17 01:54 44.92501 25.88439 31149 ft 502 kts 122°
2026-04-17 01:54 44.88844 25.96849 31150 ft 502 kts 122°
2026-04-17 01:55 44.85188 26.05234 31146 ft 502 kts 122°
2026-04-17 01:55 44.81555 26.13542 31140 ft 501 kts 122°
2026-04-17 01:56 44.77896 26.21885 31137 ft 501 kts 122°
2026-04-17 01:56 44.74231 26.30217 31145 ft 501 kts 122°
2026-04-17 01:57 44.70557 26.38544 31147 ft 500 kts 122°
2026-04-17 01:57 44.66881 26.46852 31149 ft 500 kts 122°
2026-04-17 01:58 44.63226 26.55089 31143 ft 500 kts 122°
2026-04-17 01:58 44.59540 26.63371 31142 ft 500 kts 122°
2026-04-17 01:59 44.55844 26.71654 31142 ft 501 kts 123°
2026-04-17 01:59 44.52161 26.79880 31141 ft 502 kts 123°
2026-04-17 02:00 44.48450 26.88147 31138 ft 502 kts 123°
2026-04-17 02:00 44.44729 26.96414 31138 ft 502 kts 123°
2026-04-17 02:01 44.41000 27.04673 31138 ft 502 kts 123°
2026-04-17 02:01 44.37269 27.12913 31139 ft 502 kts 123°
2026-04-17 02:02 44.33553 27.21098 31144 ft 504 kts 123°
2026-04-17 02:02 44.29786 27.29369 31147 ft 505 kts 123°
2026-04-17 02:03 44.26016 27.37623 31136 ft 505 kts 123°
2026-04-17 02:03 44.22234 27.45880 31143 ft 505 kts 124°
2026-04-17 02:04 44.18434 27.54154 31144 ft 508 kts 124°
2026-04-17 02:04 44.14643 27.62385 31146 ft 508 kts 124°
2026-04-17 02:05 44.10818 27.70666 31138 ft 508 kts 124°
2026-04-17 02:05 44.06973 27.78967 31148 ft 513 kts 124°
2026-04-17 02:06 44.03096 27.87310 31151 ft 515 kts 124°
2026-04-17 02:06 43.99203 27.95667 31152 ft 515 kts 124°
2026-04-17 02:07 43.95329 28.03957 31147 ft 515 kts 124°
2026-04-17 02:07 43.91420 28.12300 31146 ft 516 kts 124°
2026-04-17 02:08 43.87505 28.20631 31142 ft 516 kts 125°
2026-04-17 02:08 43.83585 28.28948 31141 ft 516 kts 125°
2026-04-17 02:09 43.79651 28.37274 31142 ft 516 kts 125°
2026-04-17 02:09 43.75736 28.45533 31147 ft 517 kts 125°
2026-04-17 02:10 43.71804 28.53836 31147 ft 517 kts 124°
2026-04-17 02:10 43.67946 28.62222 31142 ft 517 kts 124°
2026-04-17 02:11 43.64101 28.70620 31142 ft 517 kts 124°
2026-04-17 02:11 43.60266 28.78937 31138 ft 517 kts 124°
2026-04-17 02:12 43.56395 28.87282 31138 ft 516 kts 124°
2026-04-17 02:12 43.52516 28.95609 31138 ft 516 kts 124°
2026-04-17 02:13 43.48627 29.03938 31135 ft 516 kts 124°
2026-04-17 02:13 43.44763 29.12192 31131 ft 516 kts 124°
2026-04-17 02:14 43.40870 29.20484 31131 ft 516 kts 124°
2026-04-17 02:14 43.36970 29.28768 31126 ft 516 kts 124°
2026-04-17 02:15 43.33067 29.37034 31127 ft 516 kts 124°
2026-04-17 02:15 43.29155 29.45295 31120 ft 516 kts 124°
2026-04-17 02:16 43.25269 29.53480 31119 ft 516 kts 124°
2026-04-17 02:16 43.21345 29.61721 31118 ft 516 kts 124°
2026-04-17 02:17 43.17421 29.69942 31115 ft 516 kts 124°
2026-04-17 02:17 43.13489 29.78154 31113 ft 515 kts 124°
2026-04-17 02:18 43.09579 29.86299 31123 ft 515 kts 125°
2026-04-17 02:18 43.05654 29.94453 31116 ft 513 kts 125°
2026-04-17 02:19 43.02386 30.01223 31115 ft 513 kts 125°
2026-04-17 02:19 42.98450 30.09359 31093 ft 513 kts 125°
2026-04-17 02:20 42.94504 30.17491 31105 ft 513 kts 125°
2026-04-17 02:20 42.90555 30.25609 31104 ft 514 kts 125°
2026-04-17 02:21 42.86597 30.33722 31103 ft 514 kts 125°
2026-04-17 02:21 42.82666 30.41758 31085 ft 513 kts 125°
2026-04-17 02:22 42.78698 30.49847 31097 ft 514 kts 125°
2026-04-17 02:22 42.74557 30.59646 31087 ft 516 kts 112°
2026-04-17 02:23 42.73072 30.67575 31090 ft 517 kts 100°
2026-04-17 02:23 42.72025 30.77190 31093 ft 518 kts 97°
2026-04-17 02:24 42.71091 30.86912 31092 ft 518 kts 97°
2026-04-17 02:24 42.70129 30.96621 31087 ft 518 kts 98°
2026-04-17 02:25 42.69130 31.06329 31093 ft 518 kts 98°
2026-04-17 02:25 42.68119 31.15968 31078 ft 518 kts 98°
2026-04-17 02:26 42.67094 31.25659 31080 ft 518 kts 98°
2026-04-17 02:26 42.66063 31.35335 31085 ft 518 kts 98°
2026-04-17 02:27 42.65020 31.45041 31083 ft 519 kts 98°
2026-04-17 02:27 42.63968 31.54759 31082 ft 520 kts 98°
2026-04-17 02:28 42.62914 31.64417 31082 ft 520 kts 98°
2026-04-17 02:28 42.61846 31.74121 31080 ft 520 kts 98°
2026-04-17 02:29 42.60769 31.83842 31073 ft 520 kts 98°
2026-04-17 02:29 42.59689 31.93496 31078 ft 521 kts 98°
2026-04-17 02:30 42.58596 32.03211 31075 ft 521 kts 98°
2026-04-17 02:30 42.57519 32.12935 31076 ft 521 kts 98°
2026-04-17 02:31 42.56405 32.22646 31076 ft 521 kts 98°
2026-04-17 02:31 42.55277 32.32371 31065 ft 522 kts 98°
2026-04-17 02:32 42.54145 32.42088 31085 ft 522 kts 98°
2026-04-17 02:32 42.53014 32.51744 31077 ft 522 kts 98°
2026-04-17 02:33 42.51867 32.61471 31075 ft 523 kts 98°
2026-04-17 02:33 42.50709 32.71218 31064 ft 523 kts 98°
2026-04-17 02:34 42.49544 32.80948 31071 ft 523 kts 98°
2026-04-17 02:34 42.48379 32.90604 31061 ft 523 kts 98°
2026-04-17 02:35 42.47197 33.00331 31057 ft 523 kts 98°
2026-04-17 02:35 42.45411 33.14910 31070 ft 523 kts 98°
2026-04-17 02:36 42.44211 33.24619 31077 ft 523 kts 98°
2026-04-17 02:36 42.43004 33.34267 31076 ft 524 kts 98°
2026-04-17 02:37 42.41780 33.43997 31083 ft 524 kts 98°
2026-04-17 02:37 42.40559 33.53681 31072 ft 520 kts 99°
2026-04-17 02:38 42.39329 33.63318 31071 ft 519 kts 99°
2026-04-17 02:38 42.38104 33.72848 31077 ft 519 kts 99°
2026-04-17 02:39 42.36863 33.82459 31075 ft 519 kts 99°
2026-04-17 02:39 42.35616 33.92070 31078 ft 519 kts 99°
2026-04-17 02:40 42.34366 34.01678 31078 ft 519 kts 99°
2026-04-17 02:40 42.33109 34.11238 31081 ft 520 kts 99°
2026-04-17 02:41 42.31838 34.20846 31080 ft 520 kts 99°
2026-04-17 02:41 42.30558 34.30460 31080 ft 520 kts 99°
2026-04-17 02:42 42.29273 34.40059 31081 ft 520 kts 99°
2026-04-17 02:42 42.27981 34.49664 31085 ft 519 kts 99°
2026-04-17 02:43 42.26687 34.59162 31088 ft 517 kts 99°
2026-04-17 02:43 42.25381 34.68691 31089 ft 516 kts 99°
2026-04-17 02:44 42.24068 34.78225 31092 ft 517 kts 99°
2026-04-17 02:44 42.22751 34.87766 31103 ft 517 kts 99°
2026-04-17 02:45 42.21415 34.97303 31103 ft 517 kts 99°
2026-04-17 02:45 42.20081 35.06759 31112 ft 517 kts 99°
2026-04-17 02:46 42.18726 35.16314 31112 ft 518 kts 99°
2026-04-17 02:46 42.17375 35.25798 31111 ft 518 kts 99°
2026-04-17 02:47 42.16001 35.35386 31116 ft 518 kts 99°
2026-04-17 02:47 42.14640 35.44843 31119 ft 519 kts 99°
2026-04-17 02:48 42.13257 35.54408 31120 ft 521 kts 99°
2026-04-17 02:48 42.11859 35.63994 31123 ft 521 kts 99°
2026-04-17 02:49 42.10453 35.73581 31127 ft 521 kts 99°
2026-04-17 02:49 42.09050 35.83092 31129 ft 523 kts 99°
2026-04-17 02:50 42.07625 35.92700 31131 ft 523 kts 99°
2026-04-17 02:50 42.06193 36.02295 31130 ft 523 kts 99°
2026-04-17 02:51 42.04752 36.11890 31127 ft 523 kts 99°
2026-04-17 02:51 42.03299 36.21511 31130 ft 525 kts 100°
2026-04-17 02:52 42.01846 36.31077 31134 ft 525 kts 100°
2026-04-17 02:52 42.00377 36.40688 31132 ft 525 kts 100°
2026-04-17 02:53 41.98899 36.50299 31134 ft 526 kts 100°
2026-04-17 02:53 41.97409 36.59933 31132 ft 528 kts 100°
2026-04-17 02:54 41.95914 36.69551 31135 ft 528 kts 100°
2026-04-17 02:54 41.94405 36.79192 31138 ft 528 kts 100°
2026-04-17 02:55 41.92885 36.88847 31135 ft 529 kts 100°
2026-04-17 02:55 41.91352 36.98533 31135 ft 530 kts 100°
2026-04-17 02:56 41.89284 37.07960 31135 ft 532 kts 110°
2026-04-17 02:56 41.86495 37.17153 31137 ft 533 kts 111°
2026-04-17 02:57 41.83586 37.26303 31135 ft 535 kts 112°
2026-04-17 02:57 41.80658 37.35477 31138 ft 535 kts 112°
2026-04-17 02:58 41.77741 37.44646 31138 ft 535 kts 111°
2026-04-17 02:58 41.74838 37.53767 31138 ft 536 kts 111°
2026-04-17 02:59 41.71911 37.62938 31138 ft 536 kts 111°
2026-04-17 02:59 41.68972 37.72126 31152 ft 536 kts 111°
2026-04-17 03:00 41.66029 37.81284 31140 ft 538 kts 111°
2026-04-17 03:00 41.63079 37.90427 31140 ft 538 kts 111°
2026-04-17 03:01 41.60111 37.99600 31148 ft 538 kts 111°
2026-04-17 03:01 41.57135 38.08768 31138 ft 539 kts 111°
2026-04-17 03:02 41.54147 38.17945 31137 ft 539 kts 111°
2026-04-17 03:02 41.51166 38.27067 31138 ft 539 kts 111°
2026-04-17 03:03 41.48162 38.36230 31135 ft 540 kts 111°
2026-04-17 03:03 41.45135 38.45435 31165 ft 541 kts 111°
2026-04-17 03:04 41.42117 38.54589 31135 ft 540 kts 111°
2026-04-17 03:04 41.39075 38.63769 31135 ft 542 kts 111°
2026-04-17 03:05 41.36025 38.72946 31136 ft 543 kts 111°
2026-04-17 03:05 41.32988 38.82072 31137 ft 543 kts 111°
2026-04-17 03:06 41.29974 38.91283 31143 ft 543 kts 110°
2026-04-17 03:06 41.26967 39.00491 31145 ft 543 kts 110°
2026-04-17 03:07 41.23944 39.09696 31144 ft 543 kts 110°
2026-04-17 03:07 41.20936 39.18811 31134 ft 542 kts 111°
2026-04-17 03:08 41.17798 39.27915 31138 ft 542 kts 112°
2026-04-17 03:08 41.14588 39.36976 31140 ft 542 kts 112°
2026-04-17 03:09 41.11410 39.45963 31139 ft 542 kts 112°
2026-04-17 03:09 41.08219 39.55017 31131 ft 542 kts 112°
2026-04-17 03:10 41.05028 39.64065 31128 ft 542 kts 112°
2026-04-17 03:10 41.01832 39.73097 31130 ft 542 kts 112°
2026-04-17 03:11 40.99655 39.82537 31130 ft 532 kts 93°
2026-04-17 03:11 40.99153 39.92215 31128 ft 529 kts 88°
2026-04-17 03:12 40.98942 40.01924 31144 ft 529 kts 86°
2026-04-17 03:12 40.98750 40.11661 31133 ft 529 kts 87°
2026-04-17 03:13 40.98517 40.21378 31130 ft 526 kts 88°
2026-04-17 03:13 40.98262 40.31040 31124 ft 525 kts 88°
2026-04-17 03:14 40.97989 40.40621 31127 ft 525 kts 88°
2026-04-17 03:14 40.97708 40.50273 31128 ft 525 kts 89°
2026-04-17 03:15 40.97420 40.59947 31130 ft 526 kts 89°
2026-04-17 03:15 40.97126 40.69608 31124 ft 526 kts 89°
2026-04-17 03:16 40.96823 40.79263 31123 ft 525 kts 89°
2026-04-17 03:16 40.96517 40.88858 31129 ft 526 kts 89°
2026-04-17 03:17 40.96205 40.98543 31127 ft 527 kts 89°
2026-04-17 03:17 40.95873 41.08220 31117 ft 527 kts 89°
2026-04-17 03:18 40.95536 41.17843 31121 ft 527 kts 90°
2026-04-17 03:18 40.95192 41.27525 31118 ft 525 kts 90°
2026-04-17 03:19 40.94843 41.37185 31126 ft 526 kts 90°
2026-04-17 03:19 40.94484 41.46855 31140 ft 526 kts 91°
2026-04-17 03:20 40.94114 41.56530 31135 ft 526 kts 91°
2026-04-17 03:20 40.93740 41.66137 31157 ft 527 kts 91°
2026-04-17 03:21 40.93357 41.75813 31154 ft 528 kts 91°
2026-04-17 03:21 40.92963 41.85497 31164 ft 527 kts 91°
2026-04-17 03:22 40.92564 41.95161 31160 ft 526 kts 91°
2026-04-17 03:22 40.92157 42.04768 31161 ft 526 kts 91°
2026-04-17 03:23 40.91743 42.14424 31152 ft 528 kts 92°
2026-04-17 03:23 40.91318 42.24136 31156 ft 531 kts 92°
2026-04-17 03:24 40.90880 42.33883 31172 ft 530 kts 92°
2026-04-17 03:24 40.90438 42.43574 31159 ft 527 kts 92°
2026-04-17 03:25 40.89992 42.53197 31152 ft 527 kts 92°
2026-04-17 03:25 40.89534 42.62892 31173 ft 530 kts 92°
2026-04-17 03:26 40.89067 42.72606 31174 ft 531 kts 93°
2026-04-17 03:26 40.88589 42.82354 31183 ft 530 kts 93°
2026-04-17 03:27 40.88108 42.91996 31181 ft 528 kts 93°
2026-04-17 03:27 40.87618 43.01682 31194 ft 530 kts 93°
2026-04-17 03:28 40.87117 43.11420 31200 ft 531 kts 93°
2026-04-17 03:28 40.86608 43.21146 31201 ft 531 kts 93°
2026-04-17 03:29 40.86093 43.30820 31211 ft 531 kts 93°
2026-04-17 03:29 40.85569 43.40523 31212 ft 531 kts 93°
2026-04-17 03:30 40.85036 43.50237 31217 ft 528 kts 93°
2026-04-17 03:30 40.84499 43.59875 31217 ft 527 kts 94°
2026-04-17 03:31 40.83955 43.69487 31212 ft 527 kts 94°
2026-04-17 03:31 40.83004 43.79134 31212 ft 529 kts 99°
2026-04-17 03:32 40.81748 43.88665 31211 ft 531 kts 100°
2026-04-17 03:32 40.80519 43.98271 31212 ft 531 kts 99°
2026-04-17 03:33 40.79353 44.07860 31202 ft 528 kts 99°
2026-04-17 03:33 40.78212 44.17377 31210 ft 529 kts 99°
2026-04-17 03:34 40.77057 44.26958 31198 ft 530 kts 99°
2026-04-17 03:34 40.75886 44.36562 31200 ft 530 kts 99°
2026-04-17 03:35 40.74706 44.46165 31205 ft 530 kts 99°
2026-04-17 03:35 40.73519 44.55758 31209 ft 532 kts 99°
2026-04-17 03:36 40.71725 44.70120 31213 ft 531 kts 99°
2026-04-17 03:37 40.70515 44.79724 31208 ft 530 kts 99°
2026-04-17 03:37 40.69302 44.89287 31217 ft 530 kts 99°
2026-04-17 03:38 40.68076 44.98895 31214 ft 533 kts 99°
2026-04-17 03:38 40.66840 45.08514 31211 ft 533 kts 99°
2026-04-17 03:39 40.65600 45.18097 31216 ft 533 kts 99°
2026-04-17 03:39 40.64349 45.27694 31222 ft 534 kts 99°
2026-04-17 03:40 40.63086 45.37313 31217 ft 532 kts 99°
2026-04-17 03:40 40.61821 45.46920 31224 ft 532 kts 99°
2026-04-17 03:41 40.60556 45.56432 31222 ft 532 kts 99°
2026-04-17 03:41 40.59270 45.66045 31225 ft 534 kts 99°
2026-04-17 03:42 40.57974 45.75672 31226 ft 534 kts 100°
2026-04-17 03:42 40.56673 45.85275 31228 ft 534 kts 100°
2026-04-17 03:43 40.55372 45.94817 31232 ft 531 kts 100°
2026-04-17 03:43 40.54061 46.04371 31235 ft 531 kts 99°
2026-04-17 03:44 40.52740 46.13939 31243 ft 531 kts 100°
2026-04-17 03:44 40.51415 46.23484 31245 ft 531 kts 100°
2026-04-17 03:45 40.50087 46.32975 31234 ft 531 kts 100°
2026-04-17 03:45 40.48741 46.42524 31243 ft 533 kts 100°
2026-04-17 03:46 40.47381 46.52116 31236 ft 533 kts 100°
2026-04-17 03:46 40.46018 46.61676 31233 ft 533 kts 100°
2026-04-17 03:47 40.44643 46.71259 31240 ft 533 kts 100°
2026-04-17 03:47 40.43263 46.80818 31240 ft 535 kts 100°
2026-04-17 03:48 40.41878 46.90352 31236 ft 535 kts 100°
2026-04-17 03:48 40.40480 46.99918 31239 ft 535 kts 100°
2026-04-17 03:49 40.39072 47.09501 31244 ft 535 kts 100°
2026-04-17 03:49 40.37658 47.19056 31247 ft 532 kts 100°
2026-04-17 03:50 40.36254 47.28495 31244 ft 531 kts 100°
2026-04-17 03:50 40.34833 47.37990 31244 ft 531 kts 100°
2026-04-17 03:51 40.33400 47.47513 31237 ft 532 kts 100°
2026-04-17 03:51 40.31970 47.56953 31241 ft 532 kts 100°
2026-04-17 03:52 40.30523 47.66455 31243 ft 532 kts 101°
2026-04-17 03:52 40.29069 47.75944 31252 ft 531 kts 101°
2026-04-17 03:53 40.27610 47.85414 31253 ft 531 kts 101°
2026-04-17 03:53 40.26143 47.94889 31250 ft 531 kts 101°
2026-04-17 03:54 40.24669 48.04343 31258 ft 531 kts 101°
2026-04-17 03:54 40.23195 48.13748 31252 ft 531 kts 101°
2026-04-17 03:55 40.21704 48.23212 31250 ft 532 kts 101°
2026-04-17 03:55 40.20206 48.32669 31252 ft 532 kts 101°
2026-04-17 03:56 40.18709 48.42067 31256 ft 528 kts 101°
2026-04-17 03:56 40.17204 48.51458 31254 ft 527 kts 101°
2026-04-17 03:57 40.15694 48.60831 31263 ft 528 kts 101°
2026-04-17 03:57 40.14173 48.70218 31256 ft 528 kts 101°
2026-04-17 03:58 40.12647 48.79602 31261 ft 528 kts 101°
2026-04-17 03:58 40.11113 48.88972 31259 ft 528 kts 101°
2026-04-17 03:59 40.09575 48.98291 31263 ft 526 kts 102°
2026-04-17 03:59 40.08033 49.07589 31261 ft 524 kts 102°
2026-04-17 04:00 40.06485 49.16879 31260 ft 524 kts 102°
2026-04-17 04:00 40.04927 49.26188 31265 ft 524 kts 102°
2026-04-17 04:01 40.03363 49.35479 31266 ft 524 kts 102°
2026-04-17 04:01 40.01805 49.44692 31261 ft 524 kts 102°
2026-04-17 04:02 40.00226 49.53976 31266 ft 524 kts 102°
2026-04-17 04:02 39.98643 49.63238 31264 ft 523 kts 102°
2026-04-17 04:03 39.97053 49.72493 31262 ft 523 kts 102°
2026-04-17 04:03 39.95469 49.81664 31261 ft 523 kts 102°
2026-04-17 04:04 39.93864 49.90915 31260 ft 523 kts 102°
2026-04-17 04:04 39.92252 50.00160 31265 ft 523 kts 102°
2026-04-17 04:05 39.90633 50.09398 31263 ft 523 kts 102°
2026-04-17 04:05 39.89016 50.18573 31266 ft 523 kts 102°
2026-04-17 04:06 39.87384 50.27792 31266 ft 522 kts 102°
2026-04-17 04:06 39.85749 50.36984 31265 ft 522 kts 102°
2026-04-17 04:07 39.84104 50.46186 31267 ft 522 kts 103°
2026-04-17 04:07 39.82450 50.55391 31267 ft 522 kts 103°
2026-04-17 04:08 39.80797 50.64544 31268 ft 522 kts 103°
2026-04-17 04:08 39.79134 50.73713 31274 ft 522 kts 103°
2026-04-17 04:09 39.77461 50.82896 31273 ft 521 kts 103°
2026-04-17 04:09 39.75796 50.91985 31274 ft 520 kts 103°
2026-04-17 04:10 39.74112 51.01129 31273 ft 521 kts 103°
2026-04-17 04:10 39.72418 51.10291 31276 ft 521 kts 103°
2026-04-17 04:11 39.70717 51.19449 31273 ft 521 kts 103°
2026-04-17 04:11 39.69006 51.28615 31268 ft 521 kts 103°
2026-04-17 04:12 39.67308 51.37672 31279 ft 519 kts 103°
2026-04-17 04:12 39.65599 51.46747 31276 ft 518 kts 103°
2026-04-17 04:13 39.63987 51.55859 31282 ft 517 kts 100°
2026-04-17 04:13 39.62765 51.64995 31275 ft 518 kts 99°
2026-04-17 04:14 39.61558 51.74273 31280 ft 520 kts 99°
2026-04-17 04:14 39.60297 51.83434 31281 ft 520 kts 100°
2026-04-17 04:15 39.58988 51.92646 31286 ft 517 kts 100°
2026-04-17 04:15 39.57675 52.01776 31279 ft 515 kts 100°
2026-04-17 04:16 39.56361 52.10880 31284 ft 517 kts 101°
2026-04-17 04:16 39.55034 52.20035 31283 ft 518 kts 101°
2026-04-17 04:17 39.53697 52.29208 31289 ft 517 kts 101°
2026-04-17 04:17 39.52354 52.38371 31286 ft 517 kts 101°
2026-04-17 04:18 39.51004 52.47528 31288 ft 518 kts 101°
2026-04-17 04:18 39.49644 52.56691 31290 ft 519 kts 101°
2026-04-17 04:19 39.48285 52.65801 31290 ft 518 kts 101°
2026-04-17 04:19 39.46914 52.74950 31278 ft 518 kts 101°
2026-04-17 04:20 39.45529 52.84132 31289 ft 520 kts 101°
2026-04-17 04:20 39.44139 52.93296 31288 ft 518 kts 101°
2026-04-17 04:21 39.42757 53.02358 31290 ft 516 kts 101°
2026-04-17 04:21 39.41364 53.11441 31289 ft 516 kts 101°
2026-04-17 04:22 39.39956 53.20574 31290 ft 518 kts 101°
2026-04-17 04:22 39.38541 53.29696 31292 ft 519 kts 102°
2026-04-17 04:23 39.37125 53.38780 31287 ft 518 kts 102°
2026-04-17 04:23 39.35698 53.47888 31291 ft 515 kts 102°
2026-04-17 04:24 39.34268 53.56962 31287 ft 517 kts 102°
2026-04-17 04:24 39.32829 53.66049 31290 ft 517 kts 102°
2026-04-17 04:25 39.31387 53.75102 31293 ft 517 kts 102°
2026-04-17 04:25 39.29932 53.84191 31292 ft 517 kts 102°
2026-04-17 04:26 39.28466 53.93293 31296 ft 519 kts 102°
2026-04-17 04:26 39.26989 54.02423 31290 ft 518 kts 102°
2026-04-17 04:27 39.25509 54.11523 31289 ft 518 kts 102°
2026-04-17 04:27 39.24032 54.20556 31291 ft 518 kts 102°
2026-04-17 04:28 39.22539 54.29646 31291 ft 518 kts 102°
2026-04-17 04:28 39.21037 54.38741 31292 ft 518 kts 102°
2026-04-17 04:29 39.19541 54.47752 31290 ft 517 kts 102°
2026-04-17 04:29 39.18031 54.56806 31289 ft 517 kts 102°
2026-04-17 04:30 39.16513 54.65874 31290 ft 519 kts 102°
2026-04-17 04:30 39.14977 54.74960 31291 ft 519 kts 103°
2026-04-17 04:31 39.13437 54.84024 31294 ft 517 kts 102°
2026-04-17 04:31 39.11906 54.93005 31291 ft 516 kts 103°
2026-04-17 04:32 39.10358 55.02042 31301 ft 520 kts 103°
2026-04-17 04:32 39.08793 55.11135 31296 ft 519 kts 103°
2026-04-17 04:33 39.07225 55.20201 31296 ft 519 kts 103°
2026-04-17 04:33 39.05660 55.29200 31299 ft 518 kts 103°
2026-04-17 04:34 39.03284 55.42783 31296 ft 521 kts 103°
2026-04-17 04:34 39.01680 55.51893 31314 ft 522 kts 103°
2026-04-17 04:35 39.00080 55.60984 31296 ft 522 kts 103°
2026-04-17 04:35 38.98479 55.70011 31300 ft 522 kts 103°
2026-04-17 04:36 38.96854 55.79129 31312 ft 524 kts 104°
2026-04-17 04:36 38.95220 55.88251 31315 ft 524 kts 104°
2026-04-17 04:37 38.93578 55.97385 31298 ft 524 kts 104°
2026-04-17 04:37 38.91941 56.06445 31285 ft 524 kts 104°
2026-04-17 04:38 38.90280 56.15592 31297 ft 527 kts 104°
2026-04-17 04:38 38.88611 56.24747 31296 ft 528 kts 104°
2026-04-17 04:39 38.86928 56.33927 31305 ft 527 kts 104°
2026-04-17 04:39 38.85244 56.43074 31305 ft 527 kts 104°
2026-04-17 04:40 38.83559 56.52185 31299 ft 530 kts 105°
2026-04-17 04:40 38.81845 56.61407 31290 ft 532 kts 105°
2026-04-17 04:41 38.80124 56.70620 31297 ft 532 kts 105°
2026-04-17 04:41 38.78395 56.79834 31287 ft 532 kts 105°
2026-04-17 04:42 38.76668 56.89002 31291 ft 533 kts 106°
2026-04-17 04:42 38.74921 56.98226 31287 ft 534 kts 106°
2026-04-17 04:43 38.73165 57.07458 31287 ft 534 kts 106°
2026-04-17 04:43 38.71410 57.16641 31290 ft 533 kts 106°
2026-04-17 04:44 38.69641 57.25861 31279 ft 534 kts 107°
2026-04-17 04:44 38.67860 57.35086 31288 ft 535 kts 107°
2026-04-17 04:45 38.66072 57.44320 31285 ft 535 kts 107°
2026-04-17 04:45 38.64286 57.53494 31284 ft 534 kts 107°
2026-04-17 04:46 38.62482 57.62716 31274 ft 535 kts 107°
2026-04-17 04:46 38.59955 57.71578 31288 ft 530 kts 117°
2026-04-17 04:47 38.56993 57.80202 31281 ft 529 kts 118°
2026-04-17 04:47 38.53984 57.88719 31280 ft 529 kts 119°
2026-04-17 04:48 38.50961 57.97269 31288 ft 529 kts 119°
2026-04-17 04:48 38.47936 58.05840 31285 ft 529 kts 119°
2026-04-17 04:49 38.44911 58.14406 31282 ft 529 kts 119°
2026-04-17 04:49 38.41891 58.22934 31260 ft 529 kts 120°
2026-04-17 04:50 38.38587 58.31214 31277 ft 525 kts 126°
2026-04-17 04:50 38.34885 58.39221 31280 ft 524 kts 127°
2026-04-17 04:51 38.31130 58.47155 31285 ft 524 kts 127°
2026-04-17 04:51 38.28000 58.53753 31281 ft 523 kts 128°
2026-04-17 04:52 38.24239 58.61685 31283 ft 523 kts 128°
2026-04-17 04:52 38.19874 58.70880 31282 ft 523 kts 128°
2026-04-17 04:53 38.16108 58.78795 31285 ft 523 kts 128°
2026-04-17 04:55 38.01021 59.10316 31287 ft 520 kts 128°
2026-04-17 04:55 37.97889 59.16822 31292 ft 519 kts 128°
2026-04-17 04:56 37.94126 59.24620 31293 ft 519 kts 128°
2026-04-17 04:56 37.90352 59.32419 31291 ft 518 kts 128°
2026-04-17 04:57 37.86221 59.39797 31296 ft 512 kts 134°
2026-04-17 04:57 37.81961 59.46924 31291 ft 511 kts 134°
2026-04-17 04:58 37.77647 59.54055 31291 ft 511 kts 134°
2026-04-17 04:58 37.73334 59.61179 31293 ft 510 kts 134°
2026-04-17 04:59 37.69015 59.68312 31296 ft 511 kts 134°
2026-04-17 04:59 37.64730 59.75382 31276 ft 511 kts 134°
2026-04-17 05:00 37.60412 59.82491 31308 ft 510 kts 134°
2026-04-17 05:00 37.56097 59.89579 31311 ft 510 kts 134°
2026-04-17 05:01 37.51778 59.96659 31294 ft 510 kts 134°
2026-04-17 05:01 37.47483 60.03684 31297 ft 508 kts 134°
2026-04-17 05:02 37.43170 60.10723 31297 ft 508 kts 134°
2026-04-17 05:02 37.38852 60.17755 31298 ft 507 kts 134°
2026-04-17 05:03 37.34546 60.24755 31290 ft 507 kts 135°
2026-04-17 05:03 37.30216 60.31775 31296 ft 507 kts 135°
2026-04-17 05:04 37.25918 60.38728 31298 ft 507 kts 135°
2026-04-17 05:04 37.21590 60.45718 31297 ft 507 kts 135°
2026-04-17 05:05 37.17262 60.52694 31298 ft 507 kts 135°
2026-04-17 05:05 37.12917 60.59680 31298 ft 507 kts 135°
2026-04-17 05:06 37.08581 60.66639 31295 ft 507 kts 135°
2026-04-17 05:06 37.04268 60.73548 31309 ft 508 kts 136°
2026-04-17 05:07 36.99910 60.80513 31307 ft 508 kts 136°
2026-04-17 05:07 36.95573 60.87517 31287 ft 510 kts 134°
2026-04-17 05:08 36.91517 60.94754 31285 ft 513 kts 133°
2026-04-17 05:08 36.87494 61.02097 31290 ft 511 kts 133°
2026-04-17 05:09 36.83438 61.09377 31285 ft 511 kts 133°
2026-04-17 05:09 36.79348 61.16623 31289 ft 511 kts 134°
2026-04-17 05:10 36.75277 61.23805 31288 ft 509 kts 134°
2026-04-17 05:10 36.71191 61.30999 31284 ft 509 kts 134°
2026-04-17 05:11 36.67097 61.38194 31281 ft 509 kts 134°
2026-04-17 05:11 36.62999 61.45381 31266 ft 509 kts 133°
2026-04-17 05:12 36.58881 61.52531 31282 ft 506 kts 134°
2026-04-17 05:12 36.54755 61.59530 31279 ft 505 kts 134°
2026-04-17 05:13 36.50586 61.66584 31276 ft 505 kts 134°
2026-04-17 05:13 36.46441 61.73609 31266 ft 504 kts 134°
2026-04-17 05:14 36.42298 61.80633 31273 ft 503 kts 134°
2026-04-17 05:14 36.38187 61.87585 31270 ft 503 kts 134°
2026-04-17 05:15 36.34049 61.94572 31270 ft 503 kts 134°
2026-04-17 05:15 36.29909 62.01544 31272 ft 502 kts 134°
2026-04-17 05:16 36.25766 62.08509 31268 ft 502 kts 134°
2026-04-17 05:16 36.21645 62.15422 31269 ft 502 kts 134°
2026-04-17 05:17 36.17499 62.22363 31251 ft 502 kts 134°
2026-04-17 05:17 36.13337 62.29316 31268 ft 503 kts 134°
2026-04-17 05:18 36.09169 62.36265 31267 ft 503 kts 134°
2026-04-17 05:18 36.05026 62.43160 31244 ft 503 kts 134°
2026-04-17 05:19 36.00850 62.50096 31252 ft 503 kts 134°
2026-04-17 05:19 35.96666 62.57030 31257 ft 505 kts 134°
2026-04-17 05:20 35.92450 62.64001 31256 ft 506 kts 134°
2026-04-17 05:20 35.88243 62.70949 31248 ft 506 kts 134°
2026-04-17 05:21 35.84050 62.77857 31238 ft 507 kts 134°
2026-04-17 05:21 35.79819 62.84814 31250 ft 508 kts 134°
2026-04-17 05:22 35.75581 62.91768 31243 ft 509 kts 134°
2026-04-17 05:22 35.71352 62.98694 31244 ft 509 kts 134°
2026-04-17 05:23 35.67094 63.05653 31238 ft 509 kts 134°
2026-04-17 05:23 35.62843 63.12586 31237 ft 508 kts 134°
2026-04-17 05:24 35.58579 63.19527 31236 ft 509 kts 134°
2026-04-17 05:24 35.54319 63.26409 31205 ft 509 kts 134°
2026-04-17 05:25 35.49995 63.33284 31232 ft 509 kts 135°
2026-04-17 05:25 35.45665 63.40160 31233 ft 509 kts 135°
2026-04-17 05:26 35.41344 63.47026 31230 ft 509 kts 135°
2026-04-17 05:26 35.37008 63.53906 31221 ft 510 kts 135°
2026-04-17 05:27 35.32665 63.60787 31218 ft 510 kts 134°
2026-04-17 05:27 35.28360 63.67605 31218 ft 510 kts 134°
2026-04-17 05:28 35.23999 63.74534 31204 ft 510 kts 134°
2026-04-17 05:28 35.19692 63.81364 31190 ft 510 kts 134°
2026-04-17 05:29 35.15354 63.88227 31197 ft 511 kts 134°
2026-04-17 05:29 35.11000 63.95097 31179 ft 511 kts 134°
2026-04-17 05:30 35.06653 64.01945 31166 ft 511 kts 134°
2026-04-17 05:30 35.02288 64.08809 31167 ft 512 kts 135°
2026-04-17 05:31 34.97926 64.15647 31148 ft 512 kts 135°
2026-04-17 05:31 34.93538 64.22518 31132 ft 512 kts 135°
2026-04-17 05:32 34.89158 64.29370 31123 ft 513 kts 135°
2026-04-17 05:32 34.84801 64.36170 31091 ft 513 kts 134°
2026-04-17 05:33 34.80412 64.43004 31092 ft 512 kts 135°
2026-04-17 05:33 34.76023 64.49826 31081 ft 513 kts 135°
2026-04-17 05:34 34.71625 64.56650 31065 ft 513 kts 135°
2026-04-17 05:34 34.67222 64.63468 31050 ft 514 kts 135°
2026-04-17 05:35 34.62801 64.70296 31047 ft 514 kts 135°
2026-04-17 05:35 34.58379 64.77117 31043 ft 514 kts 135°
2026-04-17 05:36 34.53977 64.83893 31041 ft 515 kts 135°
2026-04-17 05:36 34.49543 64.90706 31051 ft 516 kts 135°
2026-04-17 05:37 34.45092 64.97528 31037 ft 516 kts 135°
2026-04-17 05:37 34.40627 65.04335 31051 ft 516 kts 135°
2026-04-17 05:38 34.36153 65.11147 31032 ft 516 kts 135°
2026-04-17 05:38 34.31684 65.17941 31034 ft 516 kts 135°
2026-04-17 05:39 34.27218 65.24721 31033 ft 516 kts 135°
2026-04-17 05:39 34.22739 65.31508 31038 ft 516 kts 135°
2026-04-17 05:40 34.18285 65.38243 31035 ft 517 kts 135°
2026-04-17 05:40 34.13794 65.45025 31039 ft 517 kts 135°
2026-04-17 05:41 34.09308 65.51784 31037 ft 517 kts 135°
2026-04-17 05:41 34.04818 65.58548 31041 ft 517 kts 135°
2026-04-17 05:42 34.00315 65.65328 31032 ft 517 kts 135°
2026-04-17 05:42 33.95811 65.72093 31036 ft 519 kts 135°
2026-04-17 05:43 33.91278 65.78886 31028 ft 519 kts 135°
2026-04-17 05:43 33.86758 65.85649 31028 ft 520 kts 135°
2026-04-17 05:44 33.82251 65.92383 31032 ft 519 kts 135°
2026-04-17 05:44 33.77713 65.99149 31024 ft 520 kts 134°
2026-04-17 05:45 33.73169 66.05911 31018 ft 520 kts 134°
2026-04-17 05:45 33.68621 66.12658 31015 ft 521 kts 134°
2026-04-17 05:46 33.64059 66.19421 31007 ft 521 kts 134°
2026-04-17 05:46 33.59504 66.26166 30997 ft 521 kts 134°
2026-04-17 05:47 33.54947 66.32906 31005 ft 519 kts 134°
2026-04-17 05:47 33.50396 66.39617 31004 ft 519 kts 134°
2026-04-17 05:48 33.45850 66.46306 30990 ft 519 kts 134°
2026-04-17 05:48 33.41319 66.52952 31013 ft 518 kts 134°
2026-04-17 05:49 33.36736 66.59631 31021 ft 519 kts 134°
2026-04-17 05:49 33.32150 66.66304 31044 ft 519 kts 134°
2026-04-17 05:50 33.27575 66.72952 31053 ft 519 kts 134°
2026-04-17 05:50 33.22988 66.79606 31055 ft 518 kts 134°
2026-04-17 05:51 33.18398 66.86261 31076 ft 519 kts 134°
2026-04-17 05:51 33.13808 66.92906 31077 ft 518 kts 134°
2026-04-17 05:52 33.09220 66.99532 31082 ft 518 kts 134°
2026-04-17 05:52 33.04638 67.06134 31066 ft 517 kts 134°
2026-04-17 05:53 33.00052 67.12729 31078 ft 517 kts 134°
2026-04-17 05:53 32.95468 67.19310 31067 ft 517 kts 134°
2026-04-17 05:54 32.90896 67.25865 31064 ft 517 kts 134°
2026-04-17 05:54 32.86272 67.32486 31044 ft 516 kts 134°
2026-04-17 05:55 32.81709 67.39004 31032 ft 516 kts 134°
2026-04-17 05:55 32.77116 67.45553 31026 ft 516 kts 134°
2026-04-17 05:56 32.72424 67.51993 31017 ft 515 kts 136°
2026-04-17 05:56 32.67645 67.58322 31017 ft 515 kts 136°
2026-04-17 05:57 32.62879 67.64653 31012 ft 515 kts 136°
2026-04-17 05:57 32.58110 67.71025 31006 ft 515 kts 135°
2026-04-17 05:58 32.53369 67.77364 31010 ft 515 kts 135°
2026-04-17 05:59 32.46347 67.86941 31010 ft 516 kts 133°
2026-04-17 05:59 32.41810 67.93550 31010 ft 517 kts 133°
2026-04-17 06:00 32.37285 68.00133 31009 ft 516 kts 133°
2026-04-17 06:00 32.32720 68.06697 31019 ft 516 kts 133°
2026-04-17 06:01 32.28144 68.13237 31017 ft 516 kts 133°
2026-04-17 06:01 32.23560 68.19770 31013 ft 516 kts 133°
2026-04-17 06:02 32.18963 68.26314 31017 ft 518 kts 133°
2026-04-17 06:02 32.14364 68.32852 31018 ft 518 kts 133°
2026-04-17 06:03 32.09785 68.39353 31018 ft 518 kts 133°
2026-04-17 06:03 32.05185 68.45871 31018 ft 518 kts 133°
2026-04-17 06:04 32.00564 68.52406 31015 ft 518 kts 133°
2026-04-17 06:04 31.95953 68.58915 31017 ft 519 kts 133°
2026-04-17 06:05 31.91326 68.65436 31031 ft 519 kts 133°
2026-04-17 06:05 31.86698 68.71949 31014 ft 519 kts 133°
2026-04-17 06:06 31.82056 68.78470 31006 ft 519 kts 133°
2026-04-17 06:06 31.77426 68.84962 31007 ft 519 kts 133°
2026-04-17 06:07 31.72814 68.91417 30998 ft 518 kts 133°
2026-04-17 06:07 31.68187 68.97887 31001 ft 518 kts 133°
2026-04-17 06:08 31.63592 69.04402 30989 ft 518 kts 131°
2026-04-17 06:08 31.59151 69.11056 30990 ft 518 kts 130°
2026-04-17 06:09 31.54719 69.17724 30979 ft 518 kts 131°
2026-04-17 06:09 31.50254 69.24366 30983 ft 517 kts 131°
2026-04-17 06:10 31.45794 69.30965 30975 ft 517 kts 131°
2026-04-17 06:10 31.41336 69.37540 30973 ft 516 kts 131°
2026-04-17 06:11 31.36830 69.44117 30974 ft 515 kts 134°
2026-04-17 06:11 31.31618 69.49794 30979 ft 511 kts 143°
2026-04-17 06:12 31.26127 69.55061 30990 ft 511 kts 144°
2026-04-17 06:12 31.20584 69.60266 30985 ft 510 kts 144°
2026-04-17 06:13 31.15062 69.65464 30997 ft 509 kts 143°
2026-04-17 06:13 31.09558 69.70658 30994 ft 509 kts 143°
2026-04-17 06:14 31.04083 69.75824 31003 ft 509 kts 143°
2026-04-17 06:14 30.98572 69.81012 30983 ft 510 kts 143°
2026-04-17 06:15 30.93054 69.86201 30991 ft 509 kts 143°
2026-04-17 06:15 30.87553 69.91368 30991 ft 508 kts 144°
2026-04-17 06:16 30.82052 69.96525 30970 ft 508 kts 144°
2026-04-17 06:16 30.76550 70.01676 30961 ft 508 kts 144°
2026-04-17 06:17 30.71972 70.05955 30956 ft 508 kts 144°
2026-04-17 06:17 30.66467 70.11094 30938 ft 508 kts 144°
2026-04-17 06:18 30.60959 70.16231 30941 ft 508 kts 144°
2026-04-17 06:18 30.55444 70.21367 30919 ft 508 kts 144°
2026-04-17 06:19 30.49945 70.26471 30912 ft 506 kts 144°
2026-04-17 06:19 30.44447 70.31571 30913 ft 506 kts 144°
2026-04-17 06:20 30.38949 70.36664 30895 ft 506 kts 144°
2026-04-17 06:20 30.33445 70.41756 30881 ft 506 kts 144°
2026-04-17 06:21 30.27946 70.46837 30875 ft 506 kts 144°
2026-04-17 06:21 30.22431 70.51924 30874 ft 507 kts 144°
2026-04-17 06:22 30.16985 70.57018 30874 ft 506 kts 143°
2026-04-17 06:22 30.11552 70.62186 30863 ft 506 kts 143°
2026-04-17 06:23 30.06124 70.67337 30862 ft 506 kts 143°
2026-04-17 06:23 30.00672 70.72486 30860 ft 507 kts 143°
2026-04-17 06:24 29.95202 70.77636 30854 ft 507 kts 143°
2026-04-17 06:24 29.89734 70.82778 30854 ft 507 kts 143°
2026-04-17 06:25 29.84261 70.87916 30853 ft 507 kts 143°
2026-04-17 06:25 29.78795 70.93042 30856 ft 506 kts 143°
2026-04-17 06:26 29.73340 70.98149 30852 ft 506 kts 143°
2026-04-17 06:26 29.67918 71.03219 30854 ft 506 kts 143°
2026-04-17 06:27 29.62570 71.08495 30854 ft 507 kts 140°
2026-04-17 06:27 29.57344 71.13940 30845 ft 507 kts 140°
2026-04-17 06:28 29.52098 71.19370 30848 ft 508 kts 141°
2026-04-17 06:28 29.46825 71.24760 30845 ft 508 kts 141°
2026-04-17 06:29 29.41541 71.30129 30843 ft 508 kts 141°
2026-04-17 06:29 29.36245 71.35502 30843 ft 508 kts 141°
2026-04-17 06:30 29.30957 71.40861 30840 ft 508 kts 141°
2026-04-17 06:30 29.25673 71.46238 30843 ft 508 kts 141°
2026-04-17 06:31 29.20395 71.51640 30840 ft 508 kts 141°
2026-04-17 06:31 29.15164 71.56988 30832 ft 508 kts 141°
2026-04-17 06:32 29.09889 71.62369 30828 ft 507 kts 141°
2026-04-17 06:32 29.04625 71.67728 30834 ft 507 kts 141°
2026-04-17 06:33 28.99357 71.73083 30831 ft 507 kts 141°
2026-04-17 06:33 28.94082 71.78436 30831 ft 507 kts 142°
2026-04-17 06:34 28.88811 71.83779 30827 ft 507 kts 142°
2026-04-17 06:34 28.83532 71.89122 30832 ft 507 kts 142°
2026-04-17 06:35 28.78263 71.94449 30829 ft 505 kts 142°
2026-04-17 06:35 28.73019 71.99743 30825 ft 503 kts 142°
2026-04-17 06:36 28.67780 72.05022 30828 ft 503 kts 142°
2026-04-17 06:36 28.62574 72.10261 30826 ft 503 kts 142°
2026-04-17 06:37 28.57326 72.15535 30823 ft 502 kts 142°
2026-04-17 06:37 28.52187 72.20922 30824 ft 506 kts 136°
2026-04-17 06:38 28.48275 72.27623 30819 ft 515 kts 116°
2026-04-17 06:38 28.46360 72.35499 30820 ft 520 kts 103°
2026-04-17 06:39 28.45139 72.43613 30821 ft 521 kts 101°
2026-04-17 06:39 28.43986 72.51739 30818 ft 521 kts 101°
2026-04-17 06:40 28.42788 72.59858 30820 ft 521 kts 102°
2026-04-17 06:40 28.41563 72.67932 30816 ft 522 kts 102°
2026-04-17 06:41 28.40316 72.76064 30818 ft 524 kts 102°
2026-04-17 06:41 28.39062 72.84212 30815 ft 524 kts 102°
2026-04-17 06:42 28.37803 72.92373 30813 ft 524 kts 102°
2026-04-17 06:42 28.36542 73.00524 30812 ft 525 kts 102°
2026-04-17 06:43 28.35271 73.08698 30813 ft 526 kts 102°
2026-04-17 06:43 28.33995 73.16875 30815 ft 526 kts 102°
2026-04-17 06:44 28.32714 73.25047 30814 ft 526 kts 102°
2026-04-17 06:44 28.31428 73.33227 30814 ft 526 kts 103°
2026-04-17 06:45 28.30134 73.41417 30815 ft 528 kts 103°
2026-04-17 06:45 28.28841 73.49561 30815 ft 528 kts 103°
2026-04-17 06:46 28.27537 73.57747 30823 ft 528 kts 103°
2026-04-17 06:46 28.26227 73.65944 30814 ft 528 kts 103°
2026-04-17 06:47 28.24912 73.74139 30820 ft 529 kts 103°
2026-04-17 06:47 28.23589 73.82346 30830 ft 529 kts 103°
2026-04-17 06:48 28.22260 73.90553 30832 ft 530 kts 103°
2026-04-17 06:48 28.20926 73.98772 30836 ft 529 kts 103°
2026-04-17 06:49 28.19598 74.06931 30835 ft 530 kts 104°
2026-04-17 06:49 28.19231 74.15309 30842 ft 536 kts 89°
2026-04-17 06:50 28.19736 74.23759 30845 ft 538 kts 88°
2026-04-17 06:50 28.20365 74.32208 30848 ft 538 kts 87°
2026-04-17 06:51 28.20984 74.40658 30848 ft 538 kts 88°
2026-04-17 06:51 28.21576 74.49129 30851 ft 539 kts 88°
2026-04-17 06:52 28.22155 74.57614 30855 ft 539 kts 88°
2026-04-17 06:52 28.22728 74.66088 30856 ft 539 kts 88°
2026-04-17 06:53 28.23296 74.74561 30857 ft 539 kts 88°
2026-04-17 06:53 28.23859 74.83045 30857 ft 539 kts 88°
2026-04-17 06:54 28.24413 74.91462 30857 ft 539 kts 88°
2026-04-17 06:54 28.24966 74.99940 30856 ft 539 kts 88°
2026-04-17 06:55 28.25515 75.08425 30851 ft 539 kts 88°
2026-04-17 06:55 28.26057 75.16913 30856 ft 540 kts 88°
2026-04-17 06:56 28.26595 75.25403 30855 ft 540 kts 88°
2026-04-17 06:56 28.27128 75.33910 30858 ft 540 kts 88°
2026-04-17 06:57 28.27656 75.42402 30861 ft 540 kts 88°
2026-04-17 06:57 28.28178 75.50895 30863 ft 539 kts 89°
2026-04-17 06:58 28.28690 75.59317 30865 ft 539 kts 89°
2026-04-17 06:58 28.29199 75.67793 30869 ft 539 kts 89°
2026-04-17 06:59 28.29705 75.76276 30869 ft 539 kts 89°
2026-04-17 06:59 28.30205 75.84748 30875 ft 538 kts 89°
2026-04-17 07:00 28.30699 75.93210 30884 ft 537 kts 89°
2026-04-17 07:00 28.31185 76.01659 30883 ft 537 kts 89°
2026-04-17 07:01 28.31670 76.10129 30893 ft 537 kts 89°
2026-04-17 07:01 28.32145 76.18522 30901 ft 535 kts 89°
2026-04-17 07:02 28.32615 76.26916 30897 ft 532 kts 89°
2026-04-17 07:02 28.33077 76.35287 30900 ft 532 kts 89°
2026-04-17 07:03 28.33535 76.43676 30910 ft 532 kts 89°
2026-04-17 07:03 28.33988 76.52059 30914 ft 532 kts 89°
2026-04-17 07:04 28.34434 76.60425 30915 ft 531 kts 89°
2026-04-17 07:04 28.33836 76.68709 30930 ft 523 kts 108°
2026-04-17 07:05 28.31605 76.76458 30914 ft 519 kts 114°
2026-04-17 07:05 28.28988 76.84084 30922 ft 519 kts 115°
2026-04-17 07:06 28.26335 76.91714 30926 ft 520 kts 115°
2026-04-17 07:06 28.23714 76.99375 30923 ft 521 kts 114°
2026-04-17 07:07 28.21115 77.07036 30924 ft 521 kts 114°
2026-04-17 07:07 28.18515 77.14698 30918 ft 521 kts 114°
2026-04-17 07:08 28.15907 77.22364 30918 ft 521 kts 114°
2026-04-17 07:08 28.13292 77.30025 30909 ft 523 kts 115°
2026-04-17 07:09 28.10662 77.37715 30907 ft 524 kts 115°
2026-04-17 07:09 28.08025 77.45409 30875 ft 524 kts 115°
2026-04-17 07:10 28.05376 77.53122 30904 ft 528 kts 115°
2026-04-17 07:10 28.02707 77.60877 30909 ft 529 kts 115°
2026-04-17 07:11 28.00050 77.68580 30894 ft 529 kts 115°
2026-04-17 07:11 27.97373 77.76328 30894 ft 529 kts 115°
2026-04-17 07:12 27.94693 77.84066 30886 ft 529 kts 115°
2026-04-17 07:12 27.92007 77.91806 30887 ft 529 kts 115°
2026-04-17 07:13 27.89314 77.99547 30879 ft 530 kts 115°
2026-04-17 07:13 27.86608 78.07309 30876 ft 532 kts 115°
2026-04-17 07:14 27.83887 78.15101 30872 ft 533 kts 115°
2026-04-17 07:14 27.81130 78.22858 30873 ft 532 kts 116°
2026-04-17 07:15 27.78228 78.30541 30864 ft 532 kts 117°
2026-04-17 07:15 27.75308 78.38206 30865 ft 532 kts 117°
2026-04-17 07:16 27.72403 78.45882 30859 ft 532 kts 116°
2026-04-17 07:16 27.69524 78.53514 30859 ft 532 kts 116°
2026-04-17 07:17 27.66610 78.61234 30859 ft 532 kts 116°
2026-04-17 07:17 27.62272 78.72689 30855 ft 532 kts 116°
2026-04-17 07:18 27.59353 78.80378 30854 ft 535 kts 117°
2026-04-17 07:18 27.56916 78.86783 30847 ft 535 kts 117°
2026-04-17 07:19 27.53979 78.94494 30848 ft 535 kts 117°
2026-04-17 07:19 27.51038 79.02197 30845 ft 535 kts 117°
2026-04-17 07:20 27.48094 79.09891 30842 ft 535 kts 117°
2026-04-17 07:20 27.45141 79.17593 30843 ft 535 kts 117°
2026-04-17 07:21 27.42189 79.25280 30838 ft 536 kts 117°
2026-04-17 07:21 27.39227 79.32977 30845 ft 536 kts 117°
2026-04-17 07:22 27.36266 79.40658 30836 ft 535 kts 117°
2026-04-17 07:22 27.33296 79.48345 30851 ft 535 kts 117°
2026-04-17 07:23 27.30298 79.55939 30843 ft 535 kts 118°
2026-04-17 07:23 27.27221 79.63551 30852 ft 535 kts 118°
2026-04-17 07:24 27.24144 79.71164 30855 ft 535 kts 118°
2026-04-17 07:24 27.21076 79.78772 30856 ft 535 kts 118°
2026-04-17 07:25 27.18010 79.86374 30851 ft 534 kts 117°
2026-04-17 07:25 27.14940 79.93974 30857 ft 534 kts 118°
2026-04-17 07:26 27.11864 80.01571 30868 ft 534 kts 118°
2026-04-17 07:26 27.08777 80.09181 30862 ft 538 kts 118°
2026-04-17 07:27 27.05666 80.16833 30860 ft 539 kts 118°
2026-04-17 07:27 27.02554 80.24480 30864 ft 539 kts 118°
2026-04-17 07:28 26.99456 80.32077 30867 ft 539 kts 118°
2026-04-17 07:28 26.96333 80.39718 30867 ft 539 kts 118°
2026-04-17 07:29 26.93204 80.47359 30868 ft 539 kts 118°
2026-04-17 07:29 26.90070 80.54999 30865 ft 539 kts 118°
2026-04-17 07:30 26.86932 80.62632 30863 ft 539 kts 118°
2026-04-17 07:30 26.83795 80.70252 30859 ft 539 kts 118°
2026-04-17 07:31 26.80647 80.77881 30856 ft 539 kts 118°
2026-04-17 07:31 26.77504 80.85486 30857 ft 539 kts 118°
2026-04-17 07:32 26.74851 80.93359 30854 ft 543 kts 110°
2026-04-17 07:32 26.72671 81.01473 30857 ft 545 kts 109°
2026-04-17 07:33 26.70575 81.09551 30860 ft 545 kts 109°
2026-04-17 07:33 26.68454 81.17689 30862 ft 545 kts 109°
2026-04-17 07:34 26.66317 81.25812 30861 ft 545 kts 109°
2026-04-17 07:34 26.64166 81.33937 30859 ft 545 kts 109°
2026-04-17 07:35 26.62012 81.42054 30861 ft 545 kts 109°
2026-04-17 07:35 26.59852 81.50181 30858 ft 545 kts 109°
2026-04-17 07:36 26.57690 81.58293 30860 ft 545 kts 109°
2026-04-17 07:36 26.55524 81.66399 30858 ft 545 kts 109°
2026-04-17 07:37 26.53348 81.74523 30859 ft 546 kts 109°
2026-04-17 07:37 26.51183 81.82585 30856 ft 546 kts 109°
2026-04-17 07:38 26.48986 81.90750 30856 ft 546 kts 109°
2026-04-17 07:38 26.46812 81.98803 30859 ft 546 kts 109°
2026-04-17 07:39 26.44616 82.06921 30859 ft 546 kts 109°
2026-04-17 07:39 26.42420 82.15022 30859 ft 546 kts 109°
2026-04-17 07:40 26.40217 82.23121 30856 ft 546 kts 109°
2026-04-17 07:40 26.38011 82.31216 30856 ft 546 kts 109°
2026-04-17 07:41 26.35803 82.39302 30847 ft 546 kts 110°
2026-04-17 07:41 26.33586 82.47397 30854 ft 546 kts 110°
2026-04-17 07:42 26.31362 82.55497 30854 ft 546 kts 110°
2026-04-17 07:42 26.29136 82.63588 30852 ft 546 kts 110°
2026-04-17 07:43 26.26905 82.71675 30851 ft 546 kts 110°
2026-04-17 07:43 26.24672 82.79750 30850 ft 546 kts 110°
2026-04-17 07:44 26.22430 82.87838 30851 ft 547 kts 110°
2026-04-17 07:44 26.20197 82.95873 30848 ft 547 kts 110°
2026-04-17 07:45 26.17945 83.03958 30848 ft 547 kts 110°
2026-04-17 07:45 26.15690 83.12036 30849 ft 547 kts 110°
2026-04-17 07:46 26.13430 83.20109 30847 ft 547 kts 110°
2026-04-17 07:46 26.11164 83.28191 30848 ft 547 kts 110°
2026-04-17 07:47 26.08893 83.36266 30845 ft 546 kts 110°
2026-04-17 07:47 26.06625 83.44317 30845 ft 546 kts 110°
2026-04-17 07:48 26.04350 83.52370 30848 ft 545 kts 110°
2026-04-17 07:48 26.02071 83.60418 30848 ft 546 kts 109°
2026-04-17 07:49 25.99809 83.68414 30848 ft 546 kts 110°
2026-04-17 07:49 25.97528 83.76457 30845 ft 546 kts 110°
2026-04-17 07:50 25.95242 83.84502 30842 ft 546 kts 110°
2026-04-17 07:50 25.92950 83.92548 30849 ft 546 kts 109°
2026-04-17 07:51 25.90654 84.00585 30850 ft 547 kts 109°
2026-04-17 07:51 25.88349 84.08638 30843 ft 547 kts 110°
2026-04-17 07:52 25.86042 84.16679 30843 ft 547 kts 110°
2026-04-17 07:52 25.83730 84.24719 30850 ft 547 kts 110°
2026-04-17 07:53 25.81417 84.32741 30847 ft 545 kts 110°
2026-04-17 07:53 25.79102 84.40755 30851 ft 545 kts 110°
2026-04-17 07:54 25.76788 84.48748 30847 ft 545 kts 110°
2026-04-17 07:54 25.74482 84.56692 30852 ft 545 kts 110°
2026-04-17 07:55 25.72155 84.64695 30851 ft 544 kts 110°
2026-04-17 07:55 25.69828 84.72673 30858 ft 545 kts 110°
2026-04-17 07:56 25.67488 84.80681 30854 ft 546 kts 110°
2026-04-17 07:56 25.65146 84.88680 30853 ft 546 kts 110°
2026-04-17 07:57 25.62797 84.96683 30857 ft 546 kts 110°
2026-04-17 07:57 25.60445 85.04680 30859 ft 546 kts 110°
2026-04-17 07:58 25.58490 85.12801 30852 ft 547 kts 103°
2026-04-17 07:58 25.57003 85.21017 30859 ft 547 kts 102°
2026-04-17 07:59 25.55573 85.29290 30856 ft 547 kts 102°
2026-04-17 07:59 25.54141 85.37548 30856 ft 546 kts 102°
2026-04-17 08:00 25.52695 85.45794 30868 ft 546 kts 102°
2026-04-17 08:00 25.51238 85.54040 30867 ft 546 kts 102°
2026-04-17 08:01 25.49772 85.62304 30868 ft 546 kts 102°
2026-04-17 08:01 25.48307 85.70542 30867 ft 546 kts 102°
2026-04-17 08:02 25.46833 85.78798 30873 ft 546 kts 102°
2026-04-17 08:02 25.45359 85.87031 30867 ft 546 kts 102°
2026-04-17 08:03 25.43878 85.95277 30873 ft 546 kts 102°
2026-04-17 08:03 25.42394 86.03505 30873 ft 546 kts 102°
2026-04-17 08:04 25.40903 86.11753 30873 ft 546 kts 102°
2026-04-17 08:04 25.39418 86.19934 30880 ft 546 kts 102°
2026-04-17 08:05 25.37920 86.28160 30881 ft 546 kts 102°
2026-04-17 08:05 25.36419 86.36383 30887 ft 546 kts 102°
2026-04-17 08:06 25.34595 86.44509 30886 ft 544 kts 112°
2026-04-17 08:06 25.31638 86.52198 30886 ft 543 kts 116°
2026-04-17 08:07 25.28485 86.59780 30886 ft 543 kts 116°
2026-04-17 08:07 25.25303 86.67353 30892 ft 543 kts 116°
2026-04-17 08:08 25.22158 86.74878 30892 ft 543 kts 116°
2026-04-17 08:08 25.18998 86.82460 30892 ft 544 kts 116°
2026-04-17 08:09 25.15837 86.90037 30892 ft 543 kts 116°
2026-04-17 08:09 25.12674 86.97606 30892 ft 544 kts 116°
2026-04-17 08:10 25.09499 87.05186 30892 ft 544 kts 116°
2026-04-17 08:10 25.06318 87.12768 30895 ft 544 kts 116°
2026-04-17 08:11 25.03136 87.20338 30895 ft 544 kts 116°
2026-04-17 08:11 24.99972 87.27854 30892 ft 544 kts 116°
2026-04-17 08:12 24.96784 87.35413 30887 ft 542 kts 116°
2026-04-17 08:12 24.93603 87.42944 30881 ft 543 kts 116°
2026-04-17 08:13 24.90414 87.50480 30881 ft 542 kts 116°
2026-04-17 08:14 24.85621 87.61782 30876 ft 543 kts 116°
2026-04-17 08:14 24.82423 87.69308 30875 ft 543 kts 116°
2026-04-17 08:15 24.79219 87.76835 30876 ft 543 kts 116°
2026-04-17 08:15 24.76039 87.84364 30875 ft 543 kts 115°
2026-04-17 08:16 24.72933 87.91953 30867 ft 544 kts 115°
2026-04-17 08:16 24.69854 87.99489 30867 ft 543 kts 115°
2026-04-17 08:17 24.66741 88.07056 30864 ft 542 kts 115°
2026-04-17 08:17 24.63601 88.14588 30865 ft 542 kts 115°
2026-04-17 08:18 24.60452 88.22109 30858 ft 542 kts 115°
2026-04-17 08:18 24.57299 88.29637 30859 ft 542 kts 115°
2026-04-17 08:19 24.54681 88.35884 30860 ft 542 kts 115°
2026-04-17 08:19 24.51527 88.43404 30859 ft 542 kts 115°
2026-04-17 08:20 24.48367 88.50924 30851 ft 541 kts 115°
2026-04-17 08:20 24.45219 88.58413 30850 ft 541 kts 115°
2026-04-17 08:21 24.42957 88.66278 30848 ft 541 kts 103°
2026-04-17 08:21 24.41286 88.74335 30851 ft 541 kts 102°
2026-04-17 08:22 24.39700 88.82410 30851 ft 541 kts 102°
2026-04-17 08:22 24.38102 88.90477 30832 ft 540 kts 102°
2026-04-17 08:23 24.36498 88.98462 30847 ft 539 kts 102°
2026-04-17 08:23 24.34874 89.06489 30845 ft 539 kts 102°
2026-04-17 08:24 24.33243 89.14526 30847 ft 539 kts 102°
2026-04-17 08:24 24.31611 89.22547 30849 ft 540 kts 102°
2026-04-17 08:25 24.29975 89.30564 30850 ft 539 kts 102°
2026-04-17 08:25 24.28335 89.38586 30851 ft 539 kts 102°
2026-04-17 08:26 24.26692 89.46592 30848 ft 539 kts 102°
2026-04-17 08:26 24.25046 89.54593 30848 ft 539 kts 102°
2026-04-17 08:27 24.23394 89.62603 30849 ft 539 kts 102°
2026-04-17 08:27 24.21739 89.70602 30848 ft 539 kts 102°
2026-04-17 08:28 24.20089 89.78555 30847 ft 539 kts 102°
2026-04-17 08:28 24.18415 89.86603 30848 ft 539 kts 102°
2026-04-17 08:29 24.16758 89.94551 30849 ft 539 kts 102°
2026-04-17 08:29 24.15085 90.02550 30848 ft 538 kts 102°
2026-04-17 08:30 24.13411 90.10531 30846 ft 538 kts 102°
2026-04-17 08:30 24.11732 90.18514 30846 ft 538 kts 102°
2026-04-17 08:31 24.10050 90.26491 30842 ft 538 kts 102°
2026-04-17 08:31 24.08364 90.34462 30840 ft 538 kts 102°
2026-04-17 08:32 24.06674 90.42436 30830 ft 537 kts 102°
2026-04-17 08:32 24.04981 90.50391 30840 ft 537 kts 102°
2026-04-17 08:33 24.03272 90.58337 30837 ft 537 kts 102°
2026-04-17 08:33 24.01573 90.66225 30840 ft 537 kts 102°
2026-04-17 08:34 23.99859 90.74174 30838 ft 536 kts 102°
2026-04-17 08:34 23.98144 90.82111 30843 ft 536 kts 102°
2026-04-17 08:35 23.96428 90.90034 30842 ft 536 kts 102°
2026-04-17 08:35 23.94707 90.97958 30846 ft 536 kts 102°
2026-04-17 08:36 23.92982 91.05881 30844 ft 536 kts 102°
2026-04-17 08:36 23.91282 91.13804 30843 ft 536 kts 102°
2026-04-17 08:37 23.89581 91.21706 30831 ft 535 kts 102°
2026-04-17 08:37 23.87892 91.29650 30829 ft 535 kts 101°
2026-04-17 08:38 23.86331 91.37524 30831 ft 535 kts 101°
2026-04-17 08:38 23.84759 91.45470 30838 ft 535 kts 101°
2026-04-17 08:39 23.83174 91.53405 30847 ft 535 kts 101°
2026-04-17 08:39 23.81580 91.61329 30850 ft 535 kts 101°
2026-04-17 08:40 23.79990 91.69204 30857 ft 534 kts 101°
2026-04-17 08:40 23.78385 91.77128 30857 ft 535 kts 101°
2026-04-17 08:41 23.76775 91.85054 30862 ft 534 kts 101°
2026-04-17 08:41 23.75164 91.92967 30861 ft 535 kts 101°
2026-04-17 08:42 23.73519 92.01028 30855 ft 553 kts 101°
2026-04-17 08:42 23.71839 92.09235 30865 ft 560 kts 101°
2026-04-17 08:43 23.70144 92.17535 30871 ft 560 kts 101°
2026-04-17 08:43 23.68442 92.25827 30870 ft 561 kts 101°
2026-04-17 08:44 23.66720 92.34132 30877 ft 561 kts 101°
2026-04-17 08:44 23.65008 92.42371 30881 ft 561 kts 101°
2026-04-17 08:45 23.63284 92.50665 30887 ft 561 kts 101°
2026-04-17 08:45 23.61555 92.58957 30887 ft 561 kts 102°
2026-04-17 08:46 23.59841 92.67259 30898 ft 561 kts 101°
2026-04-17 08:46 23.58306 92.75592 30900 ft 561 kts 99°
2026-04-17 08:47 23.56799 92.83948 30904 ft 561 kts 100°
2026-04-17 08:47 23.55276 92.92236 30913 ft 561 kts 100°
2026-04-17 08:48 23.53724 93.00563 30912 ft 562 kts 100°
2026-04-17 08:48 23.52160 93.08904 30918 ft 562 kts 100°
2026-04-17 08:49 23.50590 93.17247 30914 ft 561 kts 100°
2026-04-17 08:49 23.49018 93.25571 30924 ft 561 kts 100°
2026-04-17 08:50 23.47437 93.33904 30924 ft 561 kts 100°
2026-04-17 08:50 23.45855 93.42229 30928 ft 561 kts 100°
2026-04-17 08:51 23.44671 93.50604 30926 ft 560 kts 95°
2026-04-17 08:51 23.43826 93.59030 30923 ft 560 kts 94°
2026-04-17 08:52 23.43033 93.67409 30916 ft 559 kts 94°
2026-04-17 08:52 23.42228 93.75838 30920 ft 560 kts 94°
2026-04-17 08:53 23.41408 93.84260 30901 ft 559 kts 94°
2026-04-17 08:53 23.40581 93.92662 30901 ft 558 kts 94°
2026-04-17 08:54 23.39751 94.01052 30879 ft 558 kts 94°
2026-04-17 08:54 23.38916 94.09461 30879 ft 558 kts 94°
2026-04-17 08:55 23.38078 94.17862 30852 ft 560 kts 94°
2026-04-17 08:55 23.37237 94.26254 30843 ft 561 kts 94°
2026-04-17 08:56 23.36385 94.34677 30830 ft 559 kts 95°
2026-04-17 08:56 23.35530 94.43084 30826 ft 558 kts 95°
2026-04-17 08:57 23.34673 94.51480 30826 ft 558 kts 95°
2026-04-17 08:57 23.33812 94.59872 30831 ft 558 kts 95°
2026-04-17 08:58 23.32983 94.67916 30825 ft 559 kts 95°
2026-04-17 08:58 23.32110 94.76323 30829 ft 559 kts 95°
2026-04-17 08:59 23.31234 94.84726 30829 ft 559 kts 95°
2026-04-17 08:59 23.30372 94.93126 30827 ft 559 kts 94°
2026-04-17 09:00 23.29506 95.01481 30830 ft 560 kts 95°
2026-04-17 09:00 23.28617 95.09917 30820 ft 561 kts 95°
2026-04-17 09:01 23.27718 95.18348 30797 ft 561 kts 95°
2026-04-17 09:01 23.26814 95.26775 30802 ft 561 kts 95°
2026-04-17 09:02 23.25913 95.35148 30795 ft 561 kts 95°
2026-04-17 09:02 23.25002 95.43563 30787 ft 561 kts 95°
2026-04-17 09:03 23.24082 95.51983 30778 ft 561 kts 95°
2026-04-17 09:03 23.23162 95.60401 30779 ft 561 kts 95°
2026-04-17 09:04 23.22237 95.68761 30776 ft 561 kts 95°
2026-04-17 09:04 23.21296 95.77176 30774 ft 561 kts 95°
2026-04-17 09:05 23.20358 95.85588 30768 ft 561 kts 95°
2026-04-17 09:05 23.19421 95.94001 30769 ft 561 kts 95°
2026-04-17 09:06 23.18486 96.02358 30770 ft 561 kts 95°
2026-04-17 09:06 23.17541 96.10765 30778 ft 561 kts 95°
2026-04-17 09:07 23.16592 96.19172 30778 ft 561 kts 96°
2026-04-17 09:07 23.15637 96.27581 30785 ft 560 kts 96°
2026-04-17 09:08 23.14684 96.35932 30783 ft 560 kts 96°
2026-04-17 09:08 23.13721 96.44334 30793 ft 561 kts 96°
2026-04-17 09:09 23.12754 96.52731 30792 ft 561 kts 96°
2026-04-17 09:09 23.11781 96.61133 30801 ft 561 kts 96°
2026-04-17 09:10 23.10320 96.73685 30817 ft 561 kts 96°
2026-04-17 09:10 23.09336 96.82087 30817 ft 561 kts 96°
2026-04-17 09:11 23.08348 96.90483 30840 ft 561 kts 96°
2026-04-17 09:11 23.07370 96.98882 30840 ft 561 kts 96°
2026-04-17 09:12 23.06398 97.07277 30839 ft 561 kts 96°
2026-04-17 09:12 23.05413 97.15622 30828 ft 561 kts 96°
2026-04-17 09:13 23.04406 97.24018 30830 ft 561 kts 96°
2026-04-17 09:13 23.03392 97.32407 30808 ft 561 kts 96°
2026-04-17 09:14 23.02374 97.40804 30809 ft 561 kts 96°
2026-04-17 09:14 23.01370 97.49148 30810 ft 561 kts 96°
2026-04-17 09:15 23.00352 97.57534 30813 ft 561 kts 96°
2026-04-17 09:15 22.99320 97.65926 30794 ft 562 kts 96°
2026-04-17 09:16 22.98805 97.74358 30793 ft 558 kts 83°
2026-04-17 09:16 23.00435 97.82150 30793 ft 552 kts 69°
2026-04-17 09:17 23.03037 97.89994 30804 ft 552 kts 66°
2026-04-17 09:17 23.05771 97.97777 30811 ft 552 kts 66°
2026-04-17 09:18 23.08459 98.05585 30811 ft 552 kts 66°
2026-04-17 09:18 23.11098 98.13369 30813 ft 552 kts 66°
2026-04-17 09:19 23.13750 98.21190 30815 ft 552 kts 66°
2026-04-17 09:19 23.16407 98.29023 30808 ft 552 kts 66°
2026-04-17 09:20 23.19063 98.36856 30816 ft 553 kts 66°
2026-04-17 09:20 23.21702 98.44651 30806 ft 554 kts 66°
2026-04-17 09:21 23.24358 98.52512 30800 ft 555 kts 66°
2026-04-17 09:21 23.27016 98.60398 30806 ft 555 kts 66°
2026-04-17 09:22 23.29669 98.68284 30803 ft 555 kts 66°
2026-04-17 09:22 23.32306 98.76128 30794 ft 555 kts 66°
2026-04-17 09:23 23.34953 98.84019 30794 ft 556 kts 66°
2026-04-17 09:23 23.37596 98.91923 30811 ft 556 kts 66°
2026-04-17 09:24 23.40151 98.99872 30812 ft 556 kts 68°
2026-04-17 09:24 23.42619 99.07860 30822 ft 557 kts 68°
2026-04-17 09:25 23.45072 99.15793 30832 ft 557 kts 68°
2026-04-17 09:25 23.47556 99.23785 30845 ft 557 kts 68°
2026-04-17 09:26 23.50047 99.31790 30844 ft 558 kts 68°
2026-04-17 09:26 23.52622 99.39763 30845 ft 556 kts 63°
2026-04-17 09:27 23.56156 99.47203 30853 ft 552 kts 57°
2026-04-17 09:27 23.59912 99.54433 30849 ft 552 kts 56°
2026-04-17 09:28 23.63739 99.61701 30848 ft 553 kts 56°
2026-04-17 09:28 23.67548 99.68978 30855 ft 552 kts 56°
2026-04-17 09:29 23.71331 99.76275 30864 ft 553 kts 56°
2026-04-17 09:29 23.75098 99.83532 30867 ft 553 kts 56°
2026-04-17 09:30 23.78904 99.90854 30849 ft 556 kts 56°
2026-04-17 09:30 23.82711 99.98196 30868 ft 557 kts 56°
2026-04-17 09:31 23.86525 100.05577 30851 ft 557 kts 57°
2026-04-17 09:31 23.90301 100.12908 30850 ft 557 kts 56°
2026-04-17 09:32 23.94094 100.20279 30842 ft 557 kts 57°
2026-04-17 09:32 23.97887 100.27657 30863 ft 557 kts 56°
2026-04-17 09:33 24.01686 100.35050 30855 ft 557 kts 57°
2026-04-17 09:33 24.05484 100.42457 30852 ft 559 kts 56°
2026-04-17 09:34 24.09262 100.49829 30835 ft 560 kts 56°
2026-04-17 09:34 24.13073 100.57278 30835 ft 560 kts 57°
2026-04-17 09:35 24.16828 100.64748 30828 ft 561 kts 57°
2026-04-17 09:35 24.20569 100.72195 30825 ft 561 kts 57°
2026-04-17 09:36 24.24329 100.79688 30831 ft 562 kts 57°
2026-04-17 09:36 24.28074 100.87181 30826 ft 560 kts 56°
2026-04-17 09:37 24.31819 100.94682 30839 ft 562 kts 57°
2026-04-17 09:37 24.35568 101.02230 30823 ft 564 kts 57°
2026-04-17 09:38 24.39281 101.09726 30823 ft 563 kts 57°
2026-04-17 09:38 24.43028 101.17275 30824 ft 564 kts 57°
2026-04-17 09:39 24.46768 101.24844 30823 ft 564 kts 57°
2026-04-17 09:39 24.50505 101.32402 30816 ft 563 kts 57°
2026-04-17 09:40 24.54245 101.39962 30818 ft 563 kts 57°
2026-04-17 09:40 24.57950 101.47464 30811 ft 562 kts 57°
2026-04-17 09:41 24.61680 101.55038 30806 ft 564 kts 57°
2026-04-17 09:41 24.65416 101.62625 30802 ft 565 kts 57°
2026-04-17 09:42 24.69110 101.70262 30806 ft 565 kts 58°
2026-04-17 09:42 24.72731 101.77859 30799 ft 564 kts 58°
2026-04-17 09:43 24.76386 101.85495 30806 ft 565 kts 58°
2026-04-17 09:43 24.80059 101.93134 30815 ft 565 kts 58°
2026-04-17 09:44 24.83728 102.00766 30816 ft 563 kts 57°
2026-04-17 09:44 24.87370 102.08349 30818 ft 564 kts 58°
2026-04-17 09:45 24.91026 102.15992 30819 ft 564 kts 58°
2026-04-17 09:45 24.94678 102.23641 30824 ft 564 kts 58°
2026-04-17 09:46 24.98328 102.31292 30826 ft 564 kts 58°
2026-04-17 09:46 25.01978 102.38952 30833 ft 564 kts 58°
2026-04-17 09:47 25.04934 102.46943 30836 ft 573 kts 73°
2026-04-17 09:47 25.05525 102.51302 30834 ft 577 kts 85°
2026-04-17 09:47 25.05375 102.55719 30844 ft 580 kts 97°
2026-04-17 09:48 25.04452 102.60049 30882 ft 580 kts 109°
2026-04-17 09:48 25.02912 102.64170 30924 ft 580 kts 115°
2026-04-17 09:48 24.99405 102.72180 30982 ft 581 kts 117°
2026-04-17 09:49 24.95791 102.80073 31017 ft 581 kts 117°
2026-04-17 09:49 24.92193 102.88041 31019 ft 580 kts 117°
2026-04-17 09:50 24.88682 102.96034 30987 ft 580 kts 116°
2026-04-17 09:50 24.85190 103.04060 30935 ft 580 kts 116°
2026-04-17 09:51 24.81691 103.12069 30872 ft 580 kts 116°
2026-04-17 09:51 24.78216 103.19988 30840 ft 578 kts 116°
2026-04-17 09:52 24.74710 103.27963 30856 ft 578 kts 116°
2026-04-17 09:52 24.71207 103.35911 30880 ft 578 kts 116°
2026-04-17 09:53 24.67698 103.43857 30880 ft 578 kts 116°
2026-04-17 09:53 24.64208 103.51748 30898 ft 577 kts 117°
2026-04-17 09:54 24.60699 103.59666 30901 ft 576 kts 117°
2026-04-17 09:54 24.57189 103.67573 30907 ft 576 kts 117°
2026-04-17 09:55 24.54054 103.75645 30914 ft 576 kts 105°
2026-04-17 09:55 24.52036 103.84158 30910 ft 576 kts 103°
2026-04-17 09:56 24.50235 103.92665 30913 ft 576 kts 102°
2026-04-17 09:56 24.48449 104.01224 30915 ft 575 kts 103°
2026-04-17 09:57 24.46639 104.09759 30911 ft 575 kts 103°
2026-04-17 09:57 24.44807 104.18300 30909 ft 575 kts 103°
2026-04-17 09:58 24.42977 104.26784 30900 ft 574 kts 103°
2026-04-17 09:58 24.41136 104.35302 30899 ft 573 kts 103°
2026-04-17 09:59 24.39294 104.43811 30897 ft 573 kts 103°
2026-04-17 09:59 24.37445 104.52321 30902 ft 574 kts 103°
2026-04-17 10:00 24.35590 104.60834 30902 ft 574 kts 103°
2026-04-17 10:00 24.33746 104.69274 30906 ft 574 kts 103°
2026-04-17 10:01 24.31881 104.77788 30905 ft 574 kts 103°
2026-04-17 10:01 24.30014 104.86285 30904 ft 574 kts 103°
2026-04-17 10:02 24.28142 104.94789 30913 ft 574 kts 104°
2026-04-17 10:02 24.26274 105.03247 30906 ft 575 kts 104°
2026-04-17 10:03 24.24388 105.11754 30918 ft 574 kts 104°
2026-04-17 10:03 24.22501 105.20250 30916 ft 574 kts 104°
2026-04-17 10:04 24.20549 105.28738 30921 ft 574 kts 105°
2026-04-17 10:04 24.18491 105.37127 30922 ft 575 kts 106°
2026-04-17 10:05 24.16403 105.45590 30925 ft 575 kts 106°
2026-04-17 10:05 24.14335 105.54042 30918 ft 575 kts 105°
2026-04-17 10:06 24.12273 105.62495 30918 ft 575 kts 106°
2026-04-17 10:06 24.10221 105.70897 30915 ft 576 kts 106°
2026-04-17 10:07 24.08398 105.79436 30916 ft 577 kts 103°
2026-04-17 10:07 24.06785 105.88044 30914 ft 577 kts 102°
2026-04-17 10:08 24.05144 105.96625 30914 ft 576 kts 103°
2026-04-17 10:08 24.03452 106.05190 30914 ft 576 kts 103°
2026-04-17 10:09 24.01747 106.13688 30911 ft 575 kts 103°
2026-04-17 10:09 24.00028 106.22235 30908 ft 575 kts 103°
2026-04-17 10:10 23.98306 106.30780 30905 ft 576 kts 104°
2026-04-17 10:11 23.95719 106.43584 30908 ft 575 kts 104°
2026-04-17 10:11 23.94282 106.50675 30906 ft 575 kts 104°
2026-04-17 10:12 23.92437 106.60631 30907 ft 576 kts 97°
2026-04-17 10:12 23.91708 106.69347 30910 ft 576 kts 95°
2026-04-17 10:13 23.91227 106.76603 30904 ft 577 kts 95°
2026-04-17 10:13 23.90665 106.85359 30905 ft 578 kts 95°
2026-04-17 10:14 23.89985 106.95534 30909 ft 578 kts 95°
2026-04-17 10:14 23.89486 107.02866 30909 ft 578 kts 95°
2026-04-17 10:15 23.88912 107.11248 30899 ft 579 kts 96°
2026-04-17 10:15 23.88305 107.20035 30909 ft 580 kts 96°
2026-04-17 10:16 23.87694 107.28820 30911 ft 580 kts 96°
2026-04-17 10:16 23.87078 107.37606 30917 ft 580 kts 96°
2026-04-17 10:17 23.86461 107.46334 30912 ft 580 kts 96°
2026-04-17 10:17 23.85835 107.55117 30925 ft 581 kts 96°
2026-04-17 10:18 23.85202 107.63927 30923 ft 581 kts 96°
2026-04-17 10:18 23.84566 107.72717 30925 ft 581 kts 96°
2026-04-17 10:19 23.83923 107.81523 30922 ft 582 kts 96°
2026-04-17 10:19 23.83323 107.90271 30926 ft 582 kts 95°
2026-04-17 10:20 23.82897 107.99104 30921 ft 583 kts 94°
2026-04-17 10:20 23.82495 108.07942 30930 ft 583 kts 95°
2026-04-17 10:21 23.82061 108.16720 30932 ft 582 kts 95°
2026-04-17 10:21 23.81585 108.25549 30925 ft 582 kts 95°
2026-04-17 10:22 23.81078 108.34378 30925 ft 582 kts 95°
2026-04-17 10:22 23.80570 108.43190 30926 ft 582 kts 95°
2026-04-17 10:23 23.80064 108.52001 30931 ft 582 kts 95°
2026-04-17 10:23 23.79559 108.60749 30929 ft 581 kts 95°
2026-04-17 10:24 23.79045 108.69564 30935 ft 581 kts 95°
2026-04-17 10:24 23.78527 108.78375 30932 ft 582 kts 96°
2026-04-17 10:25 23.78003 108.87183 30927 ft 582 kts 96°
2026-04-17 10:25 23.77477 108.95944 30925 ft 582 kts 95°
2026-04-17 10:26 23.76968 109.04750 30921 ft 582 kts 95°
2026-04-17 10:26 23.76382 109.13568 30914 ft 580 kts 100°
2026-04-17 10:27 23.74875 109.22182 30923 ft 578 kts 105°
2026-04-17 10:27 23.73160 109.30683 30919 ft 577 kts 105°
2026-04-17 10:28 23.71402 109.39225 30925 ft 577 kts 105°
2026-04-17 10:28 23.69660 109.47779 30912 ft 577 kts 105°
2026-04-17 10:29 23.67930 109.56309 30923 ft 575 kts 105°
2026-04-17 10:29 23.66211 109.64769 30924 ft 575 kts 105°
2026-04-17 10:30 23.64465 109.73272 30930 ft 575 kts 105°
2026-04-17 10:30 23.62704 109.81766 30930 ft 574 kts 105°
2026-04-17 10:31 23.60963 109.90165 30943 ft 556 kts 105°
2026-04-17 10:31 23.59286 109.98256 30944 ft 543 kts 106°
2026-04-17 10:32 23.57618 110.06231 30941 ft 543 kts 106°
2026-04-17 10:32 23.55938 110.14254 30923 ft 543 kts 106°
2026-04-17 10:33 23.54260 110.22256 30937 ft 540 kts 106°
2026-04-17 10:33 23.52582 110.30226 30939 ft 540 kts 106°
2026-04-17 10:34 23.50914 110.38147 30937 ft 540 kts 106°
2026-04-17 10:34 23.49284 110.46140 30936 ft 540 kts 105°
2026-04-17 10:35 23.47674 110.54112 30934 ft 539 kts 105°
2026-04-17 10:35 23.46054 110.62083 30943 ft 538 kts 105°
2026-04-17 10:36 23.44438 110.69989 30939 ft 538 kts 105°
2026-04-17 10:36 23.42831 110.77943 30942 ft 538 kts 105°
2026-04-17 10:37 23.41168 110.85893 30939 ft 537 kts 106°
2026-04-17 10:37 23.39469 110.93803 30942 ft 536 kts 106°
2026-04-17 10:38 23.37775 111.01711 30941 ft 536 kts 106°
2026-04-17 10:38 23.36097 111.09566 30942 ft 537 kts 106°
2026-04-17 10:39 23.34411 111.17468 30942 ft 536 kts 105°
2026-04-17 10:39 23.32789 111.25377 30942 ft 535 kts 105°
2026-04-17 10:40 23.31185 111.33273 30939 ft 535 kts 105°
2026-04-17 10:40 23.29578 111.41121 30942 ft 534 kts 105°
2026-04-17 10:41 23.27954 111.49011 30944 ft 535 kts 105°
2026-04-17 10:41 23.26326 111.56894 30944 ft 534 kts 106°
2026-04-17 10:42 23.24658 111.64769 30946 ft 534 kts 106°
2026-04-17 10:42 23.22991 111.72583 30943 ft 534 kts 106°
2026-04-17 10:43 23.21314 111.80454 30951 ft 534 kts 106°
2026-04-17 10:43 23.19649 111.88353 30943 ft 538 kts 106°
2026-04-17 10:44 23.18002 111.96292 30940 ft 539 kts 106°
2026-04-17 10:44 23.16353 112.04239 30942 ft 539 kts 106°
2026-04-17 10:45 23.14704 112.12142 30938 ft 539 kts 106°
2026-04-17 10:45 23.13041 112.20072 30937 ft 537 kts 106°
2026-04-17 10:46 23.11378 112.27980 30942 ft 536 kts 106°
2026-04-17 10:46 23.09739 112.35887 30938 ft 537 kts 105°
2026-04-17 10:47 23.08109 112.43736 30936 ft 536 kts 105°
2026-04-17 10:47 23.06898 112.51736 30937 ft 539 kts 97°
2026-04-17 10:48 23.06279 112.59854 30937 ft 539 kts 96°
2026-04-17 10:48 23.05751 112.67988 30940 ft 540 kts 96°
2026-04-17 10:49 23.05221 112.76115 30932 ft 540 kts 96°
2026-04-17 10:49 23.04677 112.84171 30935 ft 537 kts 96°
2026-04-17 10:50 23.04120 112.92245 30932 ft 536 kts 96°
2026-04-17 10:50 23.03558 113.00306 30933 ft 536 kts 96°
2026-04-17 10:51 23.02779 113.08330 30932 ft 533 kts 104°
2026-04-17 10:51 23.00179 113.15699 30933 ft 523 kts 123°
2026-04-17 10:51 22.98060 113.18875 30935 ft 516 kts 134°
2026-04-17 10:52 22.95488 113.21554 30940 ft 510 kts 145°
2026-04-17 10:52 22.89366 113.25190 30933 ft 498 kts 165°
2026-04-17 10:53 22.82622 113.26536 30950 ft 494 kts 174°
2026-04-17 10:53 22.75914 113.28282 30944 ft 498 kts 167°
2026-04-17 10:54 22.69318 113.30442 30950 ft 499 kts 166°
2026-04-17 10:54 22.62706 113.32730 30942 ft 499 kts 165°
2026-04-17 10:55 22.56095 113.35043 30952 ft 500 kts 166°
2026-04-17 10:55 22.49456 113.37339 30952 ft 502 kts 166°
2026-04-17 10:56 22.42838 113.39621 30959 ft 502 kts 166°
2026-04-17 10:56 22.39510 113.40767 30815 ft 505 kts 166°
2026-04-17 10:56 22.36187 113.41912 30667 ft 493 kts 166°
2026-04-17 10:56 22.32952 113.43022 30109 ft 488 kts 166°
2026-04-17 10:57 22.29686 113.44130 28997 ft 493 kts 166°
2026-04-17 10:57 22.26413 113.45240 28167 ft 492 kts 167°
2026-04-17 10:57 22.23163 113.46348 27451 ft 488 kts 167°
2026-04-17 10:57 22.19938 113.47469 26745 ft 486 kts 166°
2026-04-17 10:58 22.16786 113.48623 26033 ft 483 kts 166°
2026-04-17 10:58 22.13616 113.49794 25344 ft 480 kts 166°
2026-04-17 10:58 22.10461 113.50956 24651 ft 477 kts 166°
2026-04-17 10:58 22.07330 113.52107 23966 ft 474 kts 166°
2026-04-17 10:59 22.04224 113.53246 23234 ft 471 kts 165°
2026-04-17 10:59 22.01138 113.54384 22497 ft 466 kts 165°
2026-04-17 10:59 21.98095 113.55508 21818 ft 460 kts 165°
2026-04-17 10:59 21.95126 113.56768 21118 ft 458 kts 160°
2026-04-17 11:00 21.92264 113.58132 20455 ft 454 kts 160°
2026-04-17 11:00 21.89389 113.59504 19780 ft 451 kts 160°
2026-04-17 11:00 21.86526 113.60850 19092 ft 447 kts 160°
2026-04-17 11:00 21.83676 113.62176 18410 ft 444 kts 160°
2026-04-17 11:01 21.80852 113.63482 17653 ft 441 kts 160°
2026-04-17 11:01 21.78037 113.64780 16921 ft 436 kts 160°
2026-04-17 11:01 21.75273 113.66051 16424 ft 427 kts 160°
2026-04-17 11:01 21.72600 113.67283 16281 ft 408 kts 160°
2026-04-17 11:02 21.70047 113.68462 16147 ft 391 kts 160°
2026-04-17 11:02 21.67762 113.69882 16014 ft 382 kts 142°
2026-04-17 11:02 21.66124 113.72065 15821 ft 377 kts 119°
2026-04-17 11:02 21.65372 113.74759 15273 ft 380 kts 95°
2026-04-17 11:03 21.65677 113.77559 14827 ft 376 kts 70°
2026-04-17 11:03 21.66973 113.79948 14436 ft 368 kts 45°
2026-04-17 11:03 21.68998 113.81509 14093 ft 355 kts 19°
2026-04-17 11:03 21.71356 113.81984 13777 ft 340 kts 353°
2026-04-17 11:04 21.73548 113.81312 13496 ft 322 kts 326°
2026-04-17 11:04 21.75137 113.79666 13256 ft 324 kts 299°
2026-04-17 11:04 21.76099 113.77491 13012 ft 327 kts 287°
2026-04-17 11:04 21.76582 113.75110 12952 ft 326 kts 273°
2026-04-17 11:05 21.76380 113.72695 12958 ft 324 kts 254°
2026-04-17 11:05 21.75420 113.70512 12959 ft 325 kts 238°
2026-04-17 11:05 21.74405 113.68348 12951 ft 326 kts 252°
2026-04-17 11:05 21.74137 113.65945 12958 ft 326 kts 273°
2026-04-17 11:06 21.74730 113.63593 12962 ft 329 kts 294°
2026-04-17 11:06 21.76109 113.61627 12962 ft 334 kts 315°
2026-04-17 11:06 21.78105 113.60310 12962 ft 341 kts 335°
2026-04-17 11:06 21.80422 113.59842 12953 ft 349 kts 355°
2026-04-17 11:07 21.82868 113.60248 12549 ft 356 kts 15°
2026-04-17 11:07 21.85021 113.61494 11980 ft 360 kts 36°
2026-04-17 11:07 21.86679 113.63491 11505 ft 359 kts 57°
2026-04-17 11:07 21.87704 113.65927 11025 ft 357 kts 70°
2026-04-17 11:08 21.88489 113.68449 10552 ft 354 kts 71°
2026-04-17 11:08 21.89242 113.70964 10089 ft 351 kts 71°
2026-04-17 11:08 21.89983 113.73440 9591 ft 340 kts 71°
2026-04-17 11:08 21.90690 113.75800 9094 ft 322 kts 71°
2026-04-17 11:09 21.91355 113.78039 8579 ft 308 kts 71°
2026-04-17 11:09 21.91987 113.80178 8105 ft 302 kts 71°
2026-04-17 11:09 21.92618 113.82327 7629 ft 298 kts 71°
2026-04-17 11:10 21.93832 113.86561 6690 ft 293 kts 71°
2026-04-17 11:10 21.94422 113.88651 6231 ft 290 kts 71°
2026-04-17 11:10 21.95006 113.90726 6010 ft 289 kts 71°
2026-04-17 11:10 21.95586 113.92783 5967 ft 286 kts 71°
2026-04-17 11:11 21.96164 113.94831 5969 ft 286 kts 71°
2026-04-17 11:11 21.96741 113.96881 5970 ft 285 kts 71°
2026-04-17 11:11 21.97315 113.98916 5970 ft 285 kts 71°
2026-04-17 11:11 21.97895 114.00969 5968 ft 285 kts 71°
2026-04-17 11:12 21.98483 114.02978 5966 ft 285 kts 68°
2026-04-17 11:12 21.99531 114.04749 5910 ft 278 kts 42°
2026-04-17 11:12 22.01072 114.05961 5657 ft 275 kts 28°
2026-04-17 11:12 22.02748 114.06981 5363 ft 277 kts 26°
2026-04-17 11:13 22.04437 114.07969 5079 ft 276 kts 26°
2026-04-17 11:13 22.06122 114.08953 4796 ft 274 kts 26°
2026-04-17 11:13 22.07789 114.09927 4534 ft 271 kts 26°
2026-04-17 11:13 22.09453 114.10892 4474 ft 272 kts 26°
2026-04-17 11:14 22.11093 114.11838 4467 ft 271 kts 26°
2026-04-17 11:14 22.12751 114.12797 4475 ft 271 kts 26°
2026-04-17 11:14 22.14408 114.13757 4473 ft 270 kts 26°
2026-04-17 11:14 22.16066 114.14718 4471 ft 270 kts 26°
2026-04-17 11:15 22.17722 114.15675 4475 ft 271 kts 26°
2026-04-17 11:15 22.19388 114.16639 4475 ft 273 kts 26°
2026-04-17 11:15 22.21065 114.17611 4473 ft 273 kts 26°
2026-04-17 11:15 22.22741 114.18585 4473 ft 274 kts 26°
2026-04-17 11:16 22.24415 114.19558 4471 ft 274 kts 26°
2026-04-17 11:16 22.26094 114.20533 4468 ft 273 kts 26°
2026-04-17 11:16 22.27768 114.21509 4469 ft 273 kts 26°
2026-04-17 11:16 22.29442 114.22482 4471 ft 273 kts 26°
2026-04-17 11:17 22.31106 114.23415 4468 ft 273 kts 22°
2026-04-17 11:17 22.32939 114.23791 4473 ft 269 kts 354°
2026-04-17 11:17 22.34766 114.23415 4460 ft 268 kts 343°
2026-04-17 11:17 22.36554 114.22854 4463 ft 269 kts 341°
2026-04-17 11:18 22.38350 114.22264 4468 ft 269 kts 341°
2026-04-17 11:18 22.39947 114.21273 4467 ft 266 kts 311°
2026-04-17 11:18 22.40727 114.19508 4469 ft 264 kts 276°
2026-04-17 11:18 22.40423 114.17582 4468 ft 264 kts 245°
2026-04-17 11:19 22.39601 114.15792 4386 ft 268 kts 243°
2026-04-17 11:19 22.38849 114.13987 4092 ft 266 kts 248°
2026-04-17 11:19 22.38245 114.12156 3711 ft 251 kts 252°
2026-04-17 11:19 22.37716 114.10409 3349 ft 241 kts 251°
2026-04-17 11:20 22.37171 114.08716 3017 ft 237 kts 251°
2026-04-17 11:20 22.36630 114.07056 2691 ft 230 kts 251°
2026-04-17 11:20 22.36124 114.05473 2409 ft 215 kts 250°
2026-04-17 11:20 22.35657 114.04016 2148 ft 196 kts 250°
2026-04-17 11:21 22.35229 114.02682 1919 ft 181 kts 250°
2026-04-17 11:21 22.34833 114.01447 1674 ft 167 kts 250°
2026-04-17 11:21 22.34468 114.00307 1436 ft 154 kts 250°
2026-04-17 11:21 22.34131 113.99257 1255 ft 143 kts 250°
2026-04-17 11:22 22.33817 113.98277 1070 ft 134 kts 249°
2026-04-17 11:22 22.33517 113.97337 920 ft 132 kts 250°
2026-04-17 11:22 22.33221 113.96410 750 ft 134 kts 249°
2026-04-17 11:22 22.32918 113.95460 637 ft 135 kts 249°
2026-04-17 11:23 22.32598 113.94471 402 ft 142 kts 249°
2026-04-17 11:23 22.32271 113.93478 234 ft 142 kts 249°
2026-04-17 11:23 22.31943 113.92474 88 ft 142 kts 249°
2026-04-17 11:23 22.31638 113.91537 41 ft 126 kts 249°
2026-04-17 11:24 22.31394 113.90767 38 ft 75 kts 251°
2026-04-17 11:24 22.31313 113.90516 37 ft 11 kts 251°
2026-04-17 11:24 22.31268 113.90375 37 ft 28 kts 249°
2026-04-17 11:24 22.31153 113.90218 37 ft 28 kts 226°
2026-04-17 11:25 22.31076 113.90142 38 ft 11 kts 206°
2026-04-17 11:25 22.30986 113.90130 38 ft 16 kts 165°
2026-04-17 11:25 22.30951 113.90220 38 ft 15 kts 77°
2026-04-17 11:25 22.30982 113.90328 38 ft 15 kts 71°
2026-04-17 11:26 22.31019 113.90448 38 ft 22 kts 71°
2026-04-17 11:26 22.31087 113.90666 39 ft 38 kts 71°
2026-04-17 11:26 22.31163 113.90900 39 ft 23 kts 71°
2026-04-17 11:26 22.31202 113.91026 39 ft 13 kts 71°
2026-04-17 11:27 22.31227 113.91097 39 ft 11 kts 68°
2026-04-17 11:27 22.31282 113.91255 39 ft 28 kts 70°
2026-04-17 11:27 22.31347 113.91450 39 ft 27 kts 70°
2026-04-17 11:27 22.31409 113.91636 39 ft 26 kts 70°
2026-04-17 11:28 22.31468 113.91815 38 ft 25 kts 71°
2026-04-17 11:28 22.31516 113.91974 38 ft 3 kts 71°
2026-04-17 11:28 22.31524 113.91998 39 ft 16 kts 71°
2026-04-17 11:28 22.31594 113.92227 38 ft 38 kts 72°
2026-04-17 11:29 22.31621 113.92453 38 ft 27 kts 107°
2026-04-17 11:29 22.31547 113.92634 38 ft 26 kts 116°
2026-04-17 11:29 22.31490 113.92797 38 ft 15 kts 83°
2026-04-17 11:29 22.31521 113.92905 38 ft 15 kts 70°
2026-04-17 11:30 22.31571 113.93052 38 ft 23 kts 70°
2026-04-17 11:30 22.31606 113.93148 38 ft 9 kts 59°
2026-04-17 11:30 22.31620 113.93175 38 ft 7 kts 66°
2026-04-17 11:30 22.31621 113.93232 38 ft 9 kts 104°
2026-04-17 11:31 22.31607 113.93280 38 ft 0 kts 108°
2026-04-17 11:31 22.31605 113.93286 38 ft 0 kts 109°